SV8FES Weather Reports


Display with metric or nautical units.
time (UTC)temp
F
wind
direction
speed
MPH
gust
MPH
rain 1hr
in
rain 24hr
in
rain mn
in
humidity
%
barometer
mb
20260508073005 72 243 3.0 7.0 0.00 0.00 0.00 57 1019.2
20260508072907 72 230 3.0 7.0 0.00 0.00 0.00 57 1019.2
20260508072802 72 259 3.0 7.0 0.00 0.00 0.00 57 1019.2
20260508072704 72 237 3.0 7.0 0.00 0.00 0.00 56 1019.1
20260508072603 72 268 3.0 7.0 0.00 0.00 0.00 56 1019.2
20260508072505 72 243 2.0 6.0 0.00 0.00 0.00 55 1019.1
20260508072404 72 253 2.0 5.0 0.00 0.00 0.00 55 1019.0
20260508072307 72 224 2.0 5.0 0.00 0.00 0.00 55 1019.0
20260508072205 72 229 2.0 5.0 0.00 0.00 0.00 54 1019.0
20260508072103 73 245 2.0 5.0 0.00 0.00 0.00 54 1019.0
20260508072004 73 243 2.0 5.0 0.00 0.00 0.00 55 1019.0
20260508071904 73 235 2.0 5.0 0.00 0.00 0.00 55 1018.9
20260508071803 73 235 2.0 5.0 0.00 0.00 0.00 57 1019.0
20260508071704 73 272 2.0 4.0 0.00 0.00 0.00 57 1018.9
20260508071603 73 272 1.0 4.0 0.00 0.00 0.00 57 1018.9
20260508071504 73 272 1.0 4.0 0.00 0.00 0.00 56 1018.8
20260508071402 73 272 1.0 4.0 0.00 0.00 0.00 55 1018.8
20260508071302 73 249 1.0 4.0 0.00 0.00 0.00 55 1018.7
20260508071202 73 234 1.0 4.0 0.00 0.00 0.00 56 1018.8
20260508071105 73 232 1.0 4.0 0.00 0.00 0.00 56 1018.7
20260508071004 73 232 0.0 4.0 0.00 0.00 0.00 55 1018.7
20260508070903 73 5 0.0 3.0 0.00 0.00 0.00 55 1018.8
20260508070803 73 5 0.0 3.0 0.00 0.00 0.00 55 1018.7
20260508070704 72 5 0.0 3.0 0.00 0.00 0.00 55 1018.5
20260508070602 72 5 1.0 3.0 0.00 0.00 0.00 55 1018.6
20260508070503 72 5 1.0 3.0 0.00 0.00 0.00 54 1018.6
20260508070403 72 5 1.0 3.0 0.00 0.00 0.00 54 1018.6
20260508070303 71 5 1.0 3.0 0.00 0.00 0.00 55 1018.5
20260508070205 71 287 1.0 2.0 0.00 0.00 0.00 55 1018.5
20260508070003 71 286 1.0 3.0 0.00 0.00 0.00 57 1018.4
20260508065903 71 286 1.0 3.0 0.00 0.00 0.00 57 1018.4
20260508065802 71 286 1.0 3.0 0.00 0.00 0.00 56 1018.3
20260508065702 71 286 2.0 4.0 0.00 0.00 0.00 56 1018.3
20260508065602 71 286 2.0 4.0 0.00 0.00 0.00 56 1018.2
20260508065505 71 286 2.0 4.0 0.00 0.00 0.00 56 1018.2
20260508065405 70 286 2.0 4.0 0.00 0.00 0.00 55 1018.1
20260508065306 70 286 2.0 4.0 0.00 0.00 0.00 55 1018.2
20260508065204 70 286 2.0 4.0 0.00 0.00 0.00 55 1018.1
20260508065104 70 286 1.0 4.0 0.00 0.00 0.00 54 1018.1
20260508065005 70 283 1.0 4.0 0.00 0.00 0.00 54 1018.1
20260508064903 70 283 1.0 4.0 0.00 0.00 0.00 54 1018.1
20260508064803 70 283 1.0 4.0 0.00 0.00 0.00 53 1018.1
20260508064703 70 295 1.0 4.0 0.00 0.00 0.00 53 1018.0
20260508064602 70 299 1.0 3.0 0.00 0.00 0.00 53 1018.0
20260508064504 70 299 1.0 3.0 0.00 0.00 0.00 53 1017.9
20260508064403 70 299 1.0 3.0 0.00 0.00 0.00 53 1017.9
20260508064304 70 299 2.0 3.0 0.00 0.00 0.00 53 1018.0
20260508064203 70 299 2.0 4.0 0.00 0.00 0.00 53 1018.0
20260508064105 70 299 2.0 4.0 0.00 0.00 0.00 53 1017.9
20260508064004 70 299 2.0 4.0 0.00 0.00 0.00 53 1017.9
20260508063903 70 299 2.0 4.0 0.00 0.00 0.00 53 1017.9
20260508063805 70 299 2.0 4.0 0.00 0.00 0.00 53 1017.9
20260508063702 70 299 2.0 4.0 0.00 0.00 0.00 52 1017.9
20260508063602 70 299 2.0 4.0 0.00 0.00 0.00 52 1017.8
20260508063505 70 299 2.0 4.0 0.00 0.00 0.00 52 1017.8
20260508063404 70 297 2.0 4.0 0.00 0.00 0.00 51 1017.7
20260508063302 70 297 2.0 4.0 0.00 0.00 0.00 52 1017.8
20260508063204 70 303 2.0 4.0 0.00 0.00 0.00 52 1017.8
20260508063103 70 303 2.0 4.0 0.00 0.00 0.00 51 1017.7
20260508063018 70 303 2.0 4.0 0.00 0.00 0.00 52 1017.7
20260508062903 70 303 2.0 4.0 0.00 0.00 0.00 52 1017.8
20260508062803 70 303 2.0 4.0 0.00 0.00 0.00 52 1017.7
20260508062703 70 303 2.0 4.0 0.00 0.00 0.00 53 1017.7
20260508062609 70 303 1.0 4.0 0.00 0.00 0.00 53 1017.7
20260508062504 70 303 1.0 4.0 0.00 0.00 0.00 54 1017.7
20260508062402 70 326 1.0 4.0 0.00 0.00 0.00 54 1017.6
20260508062305 70 328 1.0 3.0 0.00 0.00 0.00 55 1017.6
20260508062205 70 300 0.0 3.0 0.00 0.00 0.00 55 1017.5
20260508062107 70 320 0.0 3.0 0.00 0.00 0.00 55 1017.4
20260508062006 70 322 0.0 3.0 0.00 0.00 0.00 55 1017.4
20260508061902 70 0 0.0 1.0 0.00 0.00 0.00 55 1017.3
20260508061802 70 0 0.0 0.0 0.00 0.00 0.00 55 1017.4
20260508061704 69 0 0.0 0.0 0.00 0.00 0.00 55 1017.3
20260508061602 69 0 0.0 0.0 0.00 0.00 0.00 55 1017.4
20260508061504 69 0 0.0 0.0 0.00 0.00 0.00 55 1017.3
20260508061404 69 0 0.0 0.0 0.00 0.00 0.00 55 1017.3
20260508061304 69 0 0.0 0.0 0.00 0.00 0.00 55 1017.4
20260508061206 69 0 0.0 0.0 0.00 0.00 0.00 54 1017.3
20260508061103 69 0 0.0 0.0 0.00 0.00 0.00 54 1017.3
20260508061008 69 0 0.0 0.0 0.00 0.00 0.00 53 1017.3
20260508060904 69 0 0.0 1.0 0.00 0.00 0.00 53 1017.3
20260508060804 69 0 0.0 1.0 0.00 0.00 0.00 53 1017.3
20260508060704 69 0 0.0 1.0 0.00 0.00 0.00 53 1017.3
20260508060604 69 0 0.0 1.0 0.00 0.00 0.00 53 1017.4
20260508060504 69 0 0.0 1.0 0.00 0.00 0.00 54 1017.3
20260508060402 69 0 0.0 1.0 0.00 0.00 0.00 54 1017.4
20260508060303 69 0 0.0 1.0 0.00 0.00 0.00 54 1017.4
20260508060202 69 0 0.0 1.0 0.00 0.00 0.00 54 1017.4
20260508060101 69 0 0.0 1.0 0.00 0.00 0.00 54 1017.4
20260508055959 69 0 0.0 1.0 0.00 0.00 0.00 53 1017.5
20260508055902 69 0 0.0 1.0 0.00 0.00 0.00 53 1017.5
20260508055800 69 0 0.0 0.0 0.00 0.00 0.00 53 1017.5
20260508055657 69 0 0.0 0.0 0.00 0.00 0.00 54 1017.5
20260508055557 69 0 0.0 0.0 0.00 0.00 0.00 54 1017.5
20260508055454 69 0 0.0 1.0 0.00 0.00 0.00 54 1017.5
20260508055355 69 0 0.0 1.0 0.00 0.00 0.00 54 1017.6
20260508055250 69 0 0.0 1.0 0.00 0.00 0.00 54 1017.6
20260508055150 69 0 0.0 2.0 0.00 0.00 0.00 54 1017.5
20260508055051 68 0 0.0 2.0 0.00 0.00 0.00 54 1017.5
20260508054948 68 0 0.0 2.0 0.00 0.00 0.00 54 1017.5
20260508054848 68 0 0.0 2.0 0.00 0.00 0.00 54 1017.5
20260508054748 68 0 0.0 2.0 0.00 0.00 0.00 54 1017.4
20260508054647 68 0 0.0 2.0 0.00 0.00 0.00 54 1017.4
20260508054549 68 0 0.0 2.0 0.00 0.00 0.00 54 1017.4
20260508054445 68 0 0.0 2.0 0.00 0.00 0.00 54 1017.3
20260508054347 68 0 0.0 2.0 0.00 0.00 0.00 54 1017.4
20260508054244 68 0 0.0 2.0 0.00 0.00 0.00 53 1017.3
20260508054141 68 0 0.0 2.0 0.00 0.00 0.00 54 1017.2
20260508054047 68 0 0.0 2.0 0.00 0.00 0.00 54 1017.2
20260508053940 68 0 0.0 2.0 0.00 0.00 0.00 54 1017.2
20260508053839 68 0 0.0 2.0 0.00 0.00 0.00 54 1017.2
20260508053738 68 0 0.0 2.0 0.00 0.00 0.00 54 1017.1
20260508053637 68 0 0.0 2.0 0.00 0.00 0.00 54 1017.1
20260508053535 67 0 1.0 2.0 0.00 0.00 0.00 54 1017.2
20260508053435 67 0 1.0 3.0 0.00 0.00 0.00 53 1017.2
20260508053337 67 0 1.0 3.0 0.00 0.00 0.00 54 1017.2
20260508053235 67 0 1.0 3.0 0.00 0.00 0.00 55 1017.3
20260508053132 67 0 1.0 3.0 0.00 0.00 0.00 55 1017.2
20260508053033 67 0 1.0 3.0 0.00 0.00 0.00 56 1017.2
20260508052933 67 0 1.0 3.0 0.00 0.00 0.00 56 1017.3
20260508052831 67 0 1.0 3.0 0.00 0.00 0.00 56 1017.3
20260508052732 67 0 1.0 3.0 0.00 0.00 0.00 58 1017.4
20260508052632 68 0 1.0 3.0 0.00 0.00 0.00 57 1017.3
20260508052531 68 0 1.0 3.0 0.00 0.00 0.00 57 1017.3
20260508052431 68 0 1.0 3.0 0.00 0.00 0.00 57 1017.2
20260508052330 68 0 1.0 3.0 0.00 0.00 0.00 57 1017.3
20260508052231 68 276 1.0 3.0 0.00 0.00 0.00 57 1017.1
20260508052131 68 276 1.0 3.0 0.00 0.00 0.00 57 1017.2
20260508052037 68 276 1.0 3.0 0.00 0.00 0.00 57 1017.1
20260508051932 68 276 1.0 3.0 0.00 0.00 0.00 56 1017.1
20260508051831 68 276 0.0 3.0 0.00 0.00 0.00 55 1017.1
20260508051731 68 276 0.0 3.0 0.00 0.00 0.00 55 1017.0
20260508051632 68 276 0.0 2.0 0.00 0.00 0.00 53 1017.0
20260508051533 68 36 0.0 0.0 0.00 0.00 0.00 52 1016.9
20260508051433 68 36 0.0 1.0 0.00 0.00 0.00 52 1016.9
20260508051332 68 36 0.0 1.0 0.00 0.00 0.00 51 1016.9
20260508051231 68 36 0.0 1.0 0.00 0.00 0.00 52 1016.9
20260508051132 68 36 0.0 1.0 0.00 0.00 0.00 52 1016.8
20260508051032 68 36 0.0 1.0 0.00 0.00 0.00 53 1016.9
20260508050931 68 36 0.0 1.0 0.00 0.00 0.00 54 1016.9
20260508050834 68 36 0.0 1.0 0.00 0.00 0.00 54 1016.8
20260508050730 68 36 0.0 1.0 0.00 0.00 0.00 53 1016.8
20260508050631 68 36 0.0 1.0 0.00 0.00 0.00 52 1016.8
20260508050530 68 36 0.0 1.0 0.00 0.00 0.00 51 1016.8
20260508050432 68 36 0.0 1.0 0.00 0.00 0.00 51 1016.7
20260508050330 68 36 0.0 1.0 0.00 0.00 0.00 52 1016.8
20260508050232 68 36 0.0 1.0 0.00 0.00 0.00 52 1016.8
20260508050131 68 36 0.0 1.0 0.00 0.00 0.00 52 1016.7
20260508050030 68 36 0.0 1.0 0.00 0.00 0.00 52 1016.8
20260508045931 68 36 0.0 1.0 0.00 0.00 0.00 52 1016.8
20260508045831 68 36 0.0 2.0 0.00 0.00 0.00 52 1016.8
20260508045730 68 36 0.0 2.0 0.00 0.00 0.00 52 1016.8
20260508045631 68 36 0.0 2.0 0.00 0.00 0.00 52 1016.8
20260508045529 68 36 0.0 2.0 0.00 0.00 0.00 51 1016.8
20260508045432 68 36 0.0 2.0 0.00 0.00 0.00 50 1016.8
20260508045329 68 36 0.0 2.0 0.00 0.00 0.00 49 1016.9
20260508045231 68 36 0.0 2.0 0.00 0.00 0.00 49 1016.8
20260508045130 68 36 1.0 2.0 0.00 0.00 0.00 49 1016.9
20260508045030 68 36 1.0 3.0 0.00 0.00 0.00 50 1016.9
20260508044931 68 36 1.0 3.0 0.00 0.00 0.00 50 1016.9
20260508044832 68 10 1.0 3.0 0.00 0.00 0.00 50 1016.9
20260508044734 68 10 1.0 3.0 0.00 0.00 0.00 50 1017.0
20260508044631 68 10 1.0 3.0 0.00 0.00 0.00 49 1016.9
20260508044531 68 10 1.0 3.0 0.00 0.00 0.00 48 1016.9
20260508044433 68 10 0.0 3.0 0.00 0.00 0.00 48 1016.9
20260508044331 68 10 0.0 3.0 0.00 0.00 0.00 47 1016.8
20260508044232 68 10 0.0 3.0 0.00 0.00 0.00 47 1016.9
20260508044131 68 10 0.0 3.0 0.00 0.00 0.00 47 1016.8
20260508044031 68 10 0.0 2.0 0.00 0.00 0.00 47 1016.8
20260508043932 68 10 0.0 1.0 0.00 0.00 0.00 47 1016.9
20260508043832 68 10 0.0 1.0 0.00 0.00 0.00 47 1016.8
20260508043732 68 10 0.0 1.0 0.00 0.00 0.00 47 1016.8
20260508043632 68 10 0.0 1.0 0.00 0.00 0.00 47 1016.8
20260508043532 68 10 0.0 1.0 0.00 0.00 0.00 47 1016.8
20260508043431 68 10 0.0 1.0 0.00 0.00 0.00 47 1016.8
20260508043331 68 10 0.0 2.0 0.00 0.00 0.00 47 1016.8
20260508043231 68 10 0.0 2.0 0.00 0.00 0.00 46 1016.8
20260508043132 68 10 0.0 2.0 0.00 0.00 0.00 46 1016.8
20260508043032 68 10 0.0 2.0 0.00 0.00 0.00 46 1016.8
20260508042931 68 10 0.0 2.0 0.00 0.00 0.00 46 1016.8
20260508042831 68 10 0.0 3.0 0.00 0.00 0.00 46 1016.8
20260508042732 68 10 1.0 3.0 0.00 0.00 0.00 46 1016.8
20260508042631 68 10 1.0 3.0 0.00 0.00 0.00 46 1016.8
20260508042532 68 10 1.0 3.0 0.00 0.00 0.00 46 1016.8
20260508042431 68 10 1.0 3.0 0.00 0.00 0.00 46 1016.8
20260508042331 68 10 1.0 4.0 0.00 0.00 0.00 45 1016.9
20260508042231 68 10 2.0 4.0 0.00 0.00 0.00 45 1016.8
20260508042130 68 10 2.0 4.0 0.00 0.00 0.00 45 1016.8
20260508042031 68 10 2.0 4.0 0.00 0.00 0.00 45 1016.8
20260508041931 68 10 2.0 5.0 0.00 0.00 0.00 44 1016.8
20260508041831 68 10 2.0 5.0 0.00 0.00 0.00 44 1016.8
20260508041732 68 41 2.0 5.0 0.00 0.00 0.00 44 1016.8
20260508041632 68 66 3.0 5.0 0.00 0.00 0.00 44 1016.7
20260508041530 68 66 3.0 5.0 0.00 0.00 0.00 43 1016.7
20260508041430 68 76 3.0 5.0 0.00 0.00 0.00 43 1016.7
20260508041331 68 79 3.0 5.0 0.00 0.00 0.00 43 1016.6
20260508041232 68 65 3.0 5.0 0.00 0.00 0.00 43 1016.6
20260508041132 68 88 3.0 5.0 0.00 0.00 0.00 43 1016.7
20260508041032 68 90 3.0 5.0 0.00 0.00 0.00 44 1016.6
20260508040930 68 79 3.0 6.0 0.00 0.00 0.00 43 1016.6
20260508040835 68 80 3.0 6.0 0.00 0.00 0.00 43 1016.7
20260508040730 67 74 3.0 6.0 0.00 0.00 0.00 43 1016.7
20260508040631 67 74 3.0 6.0 0.00 0.00 0.00 43 1016.8
20260508040532 67 84 3.0 6.0 0.00 0.00 0.00 44 1016.7
20260508040432 67 75 3.0 6.0 0.00 0.00 0.00 44 1016.8
20260508040332 67 80 3.0 6.0 0.00 0.00 0.00 44 1016.8
20260508040232 67 87 3.0 6.0 0.00 0.00 0.00 45 1016.8
20260508040132 67 81 3.0 6.0 0.00 0.00 0.00 44 1016.8
20260508040031 67 81 3.0 6.0 0.00 0.00 0.00 45 1016.8
20260508035934 67 76 3.0 5.0 0.00 0.00 0.00 44 1016.8
20260508035831 67 83 3.0 5.0 0.00 0.00 0.00 45 1016.8
20260508035730 67 79 2.0 5.0 0.00 0.00 0.00 45 1016.8
20260508035632 67 76 2.0 5.0 0.00 0.00 0.00 45 1016.8
20260508035530 67 81 2.0 5.0 0.00 0.00 0.00 45 1016.8
20260508035431 67 80 2.0 5.0 0.00 0.00 0.00 45 1016.8
20260508035331 66 83 1.0 4.0 0.00 0.00 0.00 46 1016.8
20260508035230 66 79 1.0 4.0 0.00 0.00 0.00 46 1016.9
20260508035132 66 72 1.0 3.0 0.00 0.00 0.00 46 1016.9
20260508035031 66 68 1.0 3.0 0.00 0.00 0.00 46 1016.8
20260508034934 66 71 1.0 4.0 0.00 0.00 0.00 45 1016.9
20260508034831 66 70 1.0 4.0 0.00 0.00 0.00 45 1016.9
20260508034730 66 70 2.0 7.0 0.00 0.00 0.00 45 1016.9
20260508034630 66 70 2.0 7.0 0.00 0.00 0.00 45 1016.9
20260508034530 66 70 2.0 7.0 0.00 0.00 0.00 45 1016.9
20260508034432 66 71 3.0 7.0 0.00 0.00 0.00 45 1016.9
20260508034332 66 71 3.0 7.0 0.00 0.00 0.00 46 1016.8
20260508034231 66 71 3.0 7.0 0.00 0.00 0.00 47 1016.9
20260508034130 66 71 3.0 7.0 0.00 0.00 0.00 47 1016.9
20260508034030 66 70 3.0 7.0 0.00 0.00 0.00 47 1016.9
20260508033935 66 76 3.0 7.0 0.00 0.00 0.00 47 1016.9
20260508033831 66 74 3.0 7.0 0.00 0.00 0.00 47 1017.0
20260508033732 66 74 3.0 7.0 0.00 0.00 0.00 46 1017.0
20260508033632 66 71 2.0 5.0 0.00 0.00 0.00 47 1017.0
20260508033530 66 72 2.0 4.0 0.00 0.00 0.00 46 1017.0
20260508033432 66 66 2.0 4.0 0.00 0.00 0.00 46 1016.9
20260508033332 66 67 2.0 4.0 0.00 0.00 0.00 46 1017.0
20260508033230 66 74 2.0 4.0 0.00 0.00 0.00 46 1017.0
20260508033130 66 74 2.0 4.0 0.00 0.00 0.00 46 1017.0
20260508033031 66 74 2.0 4.0 0.00 0.00 0.00 46 1017.0
20260508032933 66 69 2.0 4.0 0.00 0.00 0.00 46 1017.0
20260508032831 66 75 2.0 4.0 0.00 0.00 0.00 46 1017.0
20260508032731 66 75 1.0 4.0 0.00 0.00 0.00 46 1017.1
20260508032632 66 73 1.0 4.0 0.00 0.00 0.00 46 1017.0
20260508032531 66 73 1.0 4.0 0.00 0.00 0.00 47 1017.0
20260508032431 66 58 1.0 3.0 0.00 0.00 0.00 47 1017.0
20260508032332 66 66 1.0 3.0 0.00 0.00 0.00 47 1016.9
20260508032233 66 66 1.0 4.0 0.00 0.00 0.00 46 1016.9
20260508032130 66 67 1.0 4.0 0.00 0.00 0.00 47 1017.0
20260508032033 66 67 1.0 4.0 0.00 0.00 0.00 47 1017.0
20260508031931 66 68 1.0 4.0 0.00 0.00 0.00 47 1017.0
20260508031832 66 70 1.0 4.0 0.00 0.00 0.00 48 1017.0
20260508031732 66 70 1.0 4.0 0.00 0.00 0.00 48 1017.0
20260508031633 66 70 1.0 7.0 0.00 0.00 0.00 47 1017.0
20260508031532 66 70 2.0 8.0 0.00 0.00 0.00 47 1017.0
20260508031431 66 70 2.0 8.0 0.00 0.00 0.00 47 1017.0
20260508031330 66 70 2.0 8.0 0.00 0.00 0.00 46 1017.0
20260508031233 66 65 2.0 8.0 0.00 0.00 0.00 46 1017.0
20260508031132 66 79 2.0 8.0 0.00 0.00 0.00 46 1017.0
20260508031031 66 79 2.0 8.0 0.00 0.00 0.00 47 1017.0
20260508030936 66 79 3.0 8.0 0.00 0.00 0.00 47 1017.0
20260508030832 66 79 3.0 8.0 0.00 0.00 0.00 47 1017.0
20260508030732 66 79 2.0 8.0 0.00 0.00 0.00 48 1017.0
20260508030631 66 78 2.0 8.0 0.00 0.00 0.00 48 1017.0
20260508030532 66 77 1.0 8.0 0.00 0.00 0.00 48 1017.0
20260508030434 66 73 1.0 4.0 0.00 0.00 0.00 49 1017.1
20260508030331 66 59 1.0 3.0 0.00 0.00 0.00 49 1017.0
20260508030232 66 58 1.0 6.0 0.00 0.00 0.00 49 1017.0
20260508030130 66 58 1.0 6.0 0.00 0.00 0.00 50 1017.1
20260508030032 66 58 2.0 6.0 0.00 0.00 0.00 50 1017.1
20260508025932 66 58 2.0 7.0 0.00 0.00 0.00 49 1017.0
20260508025831 66 58 2.0 7.0 0.00 0.00 0.00 50 1017.1
20260508025732 66 58 3.0 8.0 0.00 0.00 0.00 50 1017.0
20260508025630 66 58 4.0 8.0 0.00 0.00 0.00 50 1017.1
20260508025530 66 58 5.0 9.0 0.00 0.00 0.00 50 1017.0
20260508025431 66 53 5.0 10.0 0.00 0.00 0.00 50 1016.9
20260508025333 66 84 6.0 10.0 0.00 0.00 0.00 50 1016.9
20260508025232 66 80 6.0 10.0 0.00 0.00 0.00 50 1016.9
20260508025131 66 75 6.0 10.0 0.00 0.00 0.00 50 1016.9
20260508025030 66 70 6.0 10.0 0.00 0.00 0.00 50 1017.0
20260508024930 66 81 6.0 10.0 0.00 0.00 0.00 50 1017.0
20260508024831 66 85 6.0 10.0 0.00 0.00 0.00 50 1017.0
20260508024730 66 77 6.0 10.0 0.00 0.00 0.00 50 1017.0
20260508024630 66 71 6.0 10.0 0.00 0.00 0.00 50 1017.0
20260508024532 66 81 6.0 10.0 0.00 0.00 0.00 50 1017.0
20260508024432 66 79 6.0 10.0 0.00 0.00 0.00 50 1017.0
20260508024332 66 89 5.0 10.0 0.00 0.00 0.00 50 1017.0
20260508024131 66 91 5.0 8.0 0.00 0.00 0.00 50 1017.0
20260508024032 66 73 5.0 8.0 0.00 0.00 0.00 50 1017.0
20260508023932 66 73 5.0 8.0 0.00 0.00 0.00 50 1016.9
20260508023832 66 77 5.0 9.0 0.00 0.00 0.00 50 1017.0
20260508023731 66 81 5.0 9.0 0.00 0.00 0.00 50 1017.0
20260508023632 66 80 5.0 9.0 0.00 0.00 0.00 50 1017.1
20260508023532 66 79 5.0 9.0 0.00 0.00 0.00 50 1017.0
20260508023432 66 77 5.0 9.0 0.00 0.00 0.00 50 1017.0
20260508023330 66 81 5.0 9.0 0.00 0.00 0.00 50 1017.1
20260508023232 66 82 4.0 9.0 0.00 0.00 0.00 50 1017.0
20260508023132 66 79 4.0 9.0 0.00 0.00 0.00 50 1017.1
20260508023030 66 79 4.0 9.0 0.00 0.00 0.00 50 1017.1
20260508022932 66 86 4.0 9.0 0.00 0.00 0.00 50 1017.0
20260508022832 66 87 3.0 9.0 0.00 0.00 0.00 50 1017.1
20260508022734 66 79 3.0 5.0 0.00 0.00 0.00 50 1017.1
20260508022632 66 76 3.0 5.0 0.00 0.00 0.00 50 1017.1
20260508022530 66 78 3.0 4.0 0.00 0.00 0.00 50 1017.1
20260508022430 66 81 3.0 4.0 0.00 0.00 0.00 50 1017.1
20260508022332 66 77 2.0 4.0 0.00 0.00 0.00 50 1017.2
20260508022231 66 81 2.0 4.0 0.00 0.00 0.00 50 1017.2
20260508022132 66 80 2.0 4.0 0.00 0.00 0.00 51 1017.2
20260508022032 66 79 2.0 4.0 0.00 0.00 0.00 51 1017.2
20260508021932 66 76 2.0 4.0 0.00 0.00 0.00 51 1017.2
20260508021831 66 79 2.0 4.0 0.00 0.00 0.00 51 1017.3
20260508021733 66 76 2.0 4.0 0.00 0.00 0.00 51 1017.3
20260508021631 66 76 1.0 4.0 0.00 0.00 0.00 51 1017.2
20260508021529 66 58 1.0 3.0 0.00 0.00 0.00 51 1017.3
20260508021432 66 76 1.0 3.0 0.00 0.00 0.00 51 1017.3
20260508021331 66 76 1.0 3.0 0.00 0.00 0.00 51 1017.2
20260508021231 66 76 1.0 3.0 0.00 0.00 0.00 51 1017.3
20260508021130 66 76 1.0 3.0 0.00 0.00 0.00 52 1017.3
20260508021032 66 76 1.0 3.0 0.00 0.00 0.00 52 1017.3
20260508020932 66 76 1.0 3.0 0.00 0.00 0.00 53 1017.3
20260508020832 66 76 1.0 3.0 0.00 0.00 0.00 53 1017.3
20260508020731 66 77 1.0 3.0 0.00 0.00 0.00 53 1017.3
20260508020632 66 76 1.0 2.0 0.00 0.00 0.00 53 1017.3
20260508020530 66 76 1.0 2.0 0.00 0.00 0.00 53 1017.3
20260508020430 66 76 1.0 2.0 0.00 0.00 0.00 53 1017.3
20260508020330 66 76 0.0 2.0 0.00 0.00 0.00 54 1017.3
20260508020231 66 76 0.0 2.0 0.00 0.00 0.00 54 1017.2
20260508020131 66 76 0.0 2.0 0.00 0.00 0.00 54 1017.3
20260508020033 66 76 0.0 1.0 0.00 0.00 0.00 54 1017.3
20260508015931 66 76 0.0 1.0 0.00 0.00 0.00 54 1017.3
20260508015833 66 76 0.0 1.0 0.00 0.00 0.00 54 1017.3
20260508015732 66 76 0.0 2.0 0.00 0.00 0.00 54 1017.3
20260508015631 66 76 0.0 2.0 0.00 0.00 0.00 54 1017.3
20260508015530 66 76 1.0 3.0 0.00 0.00 0.00 54 1017.3
20260508015432 66 76 1.0 3.0 0.00 0.00 0.00 54 1017.3
20260508015331 66 76 1.0 3.0 0.00 0.00 0.00 54 1017.3
20260508015232 67 76 1.0 3.0 0.00 0.00 0.00 54 1017.1
20260508015133 67 76 1.0 3.0 0.00 0.00 0.00 55 1017.2
20260508015031 67 76 1.0 3.0 0.00 0.00 0.00 55 1017.3
20260508014932 67 76 1.0 3.0 0.00 0.00 0.00 55 1017.2
20260508014830 67 76 1.0 3.0 0.00 0.00 0.00 55 1017.2
20260508014732 67 76 1.0 3.0 0.00 0.00 0.00 55 1017.2
20260508014632 67 76 2.0 4.0 0.00 0.00 0.00 55 1017.2
20260508014532 67 76 1.0 4.0 0.00 0.00 0.00 55 1017.2
20260508014431 67 75 1.0 4.0 0.00 0.00 0.00 54 1017.2
20260508014330 67 76 1.0 4.0 0.00 0.00 0.00 54 1017.2
20260508014230 67 78 1.0 4.0 0.00 0.00 0.00 54 1017.1
20260508014132 67 78 1.0 4.0 0.00 0.00 0.00 54 1017.2
20260508014031 67 77 1.0 4.0 0.00 0.00 0.00 54 1017.1
20260508013931 67 78 1.0 4.0 0.00 0.00 0.00 54 1017.1
20260508013832 67 78 1.0 4.0 0.00 0.00 0.00 54 1017.1
20260508013732 67 79 1.0 4.0 0.00 0.00 0.00 54 1017.2
20260508013630 67 76 1.0 2.0 0.00 0.00 0.00 54 1017.1
20260508013532 67 74 1.0 2.0 0.00 0.00 0.00 54 1017.1
20260508013430 67 74 1.0 3.0 0.00 0.00 0.00 54 1017.1
20260508013332 67 74 0.0 3.0 0.00 0.00 0.00 53 1017.1
20260508013232 67 74 0.0 3.0 0.00 0.00 0.00 53 1017.2
20260508013131 67 74 0.0 3.0 0.00 0.00 0.00 53 1017.2
20260508013033 67 74 0.0 3.0 0.00 0.00 0.00 53 1017.2
20260508012932 67 74 0.0 3.0 0.00 0.00 0.00 53 1017.1
20260508012837 67 74 0.0 3.0 0.00 0.00 0.00 53 1017.1
20260508012731 67 74 0.0 3.0 0.00 0.00 0.00 53 1017.1
20260508012630 67 74 0.0 3.0 0.00 0.00 0.00 53 1017.1
20260508012530 67 74 0.0 3.0 0.00 0.00 0.00 52 1017.1
20260508012430 67 74 0.0 3.0 0.00 0.00 0.00 52 1017.1
20260508012332 67 74 0.0 2.0 0.00 0.00 0.00 52 1017.1
20260508012230 67 74 0.0 2.0 0.00 0.00 0.00 51 1017.1
20260508012133 67 74 0.0 3.0 0.00 0.00 0.00 50 1017.1
20260508012031 67 74 1.0 3.0 0.00 0.00 0.00 50 1017.2
20260508011931 67 74 1.0 5.0 0.00 0.00 0.00 50 1017.1
20260508011832 67 74 1.0 5.0 0.00 0.00 0.00 50 1017.1
20260508011730 67 74 2.0 6.0 0.00 0.00 0.00 50 1017.1
20260508011632 67 74 2.0 6.0 0.00 0.00 0.00 50 1017.1
20260508011531 67 74 3.0 7.0 0.00 0.00 0.00 50 1017.0
20260508011434 67 74 3.0 7.0 0.00 0.00 0.00 50 1017.1
20260508011330 67 74 3.0 8.0 0.00 0.00 0.00 50 1017.1
20260508011232 67 74 4.0 8.0 0.00 0.00 0.00 50 1017.1
20260508011132 67 74 4.0 8.0 0.00 0.00 0.00 49 1017.1
20260508011034 67 72 4.0 8.0 0.00 0.00 0.00 49 1017.1
20260508010930 67 81 4.0 8.0 0.00 0.00 0.00 49 1017.1
20260508010832 67 71 4.0 8.0 0.00 0.00 0.00 49 1017.2
20260508010730 67 77 4.0 8.0 0.00 0.00 0.00 49 1017.2
20260508010632 67 81 4.0 8.0 0.00 0.00 0.00 49 1017.2
20260508010531 67 72 4.0 8.0 0.00 0.00 0.00 49 1017.2
20260508010431 67 82 3.0 8.0 0.00 0.00 0.00 49 1017.2
20260508010330 67 78 3.0 7.0 0.00 0.00 0.00 49 1017.2
20260508010230 67 76 4.0 7.0 0.00 0.00 0.00 49 1017.2
20260508010132 67 77 4.0 7.0 0.00 0.00 0.00 48 1017.1
20260508010032 67 75 4.0 8.0 0.00 0.00 0.00 48 1017.2
20260508005930 67 78 4.0 8.0 0.00 0.00 0.00 48 1017.2
20260508005832 67 78 4.0 8.0 0.00 0.00 0.00 48 1017.2
20260508005731 67 83 4.0 8.0 0.00 0.00 0.00 48 1017.2
20260508005629 67 85 4.0 8.0 0.00 0.00 0.00 48 1017.2
20260508005531 67 84 4.0 8.0 0.00 0.00 0.00 48 1017.2
20260508005432 67 81 4.0 8.0 0.00 0.00 0.00 48 1017.3
20260508005332 67 82 3.0 8.0 0.00 0.00 0.00 48 1017.2
20260508005231 67 83 3.0 8.0 0.00 0.00 0.00 49 1017.2
20260508005131 66 79 3.0 8.0 0.00 0.00 0.00 49 1017.3
20260508005032 66 83 3.0 8.0 0.00 0.00 0.00 49 1017.2
20260508004931 66 91 3.0 8.0 0.00 0.00 0.00 49 1017.3
20260508004831 66 80 3.0 9.0 0.00 0.00 0.00 50 1017.4
20260508004732 66 78 4.0 9.0 0.00 0.00 0.00 50 1017.4
20260508004630 66 106 4.0 9.0 0.00 0.00 0.00 50 1017.5
20260508004531 66 107 5.0 9.0 0.00 0.00 0.00 50 1017.5
20260508004431 66 84 5.0 9.0 0.00 0.00 0.00 51 1017.5
20260508004330 66 83 5.0 9.0 0.00 0.00 0.00 52 1017.5
20260508004233 66 83 6.0 9.0 0.00 0.00 0.00 52 1017.5
20260508004132 66 80 6.0 9.0 0.00 0.00 0.00 52 1017.5
20260508004031 66 99 6.0 9.0 0.00 0.00 0.00 52 1017.5
20260508003932 66 72 7.0 9.0 0.00 0.00 0.00 52 1017.5
20260508003832 66 77 6.0 9.0 0.00 0.00 0.00 52 1017.5
20260508003731 66 73 6.0 9.0 0.00 0.00 0.00 52 1017.5
20260508003631 66 81 6.0 9.0 0.00 0.00 0.00 52 1017.6
20260508003530 66 83 6.0 9.0 0.00 0.00 0.00 52 1017.6
20260508003432 66 79 6.0 9.0 0.00 0.00 0.00 53 1017.6
20260508003331 66 89 6.0 9.0 0.00 0.00 0.00 53 1017.6
20260508003232 66 77 6.0 9.0 0.00 0.00 0.00 52 1017.6
20260508003132 66 74 5.0 9.0 0.00 0.00 0.00 52 1017.6
20260508003030 67 73 5.0 9.0 0.00 0.00 0.00 52 1017.6
20260508002931 67 85 4.0 8.0 0.00 0.00 0.00 52 1017.6
20260508002831 67 81 4.0 8.0 0.00 0.00 0.00 51 1017.6
20260508002730 67 72 4.0 8.0 0.00 0.00 0.00 51 1017.6
20260508002632 67 69 3.0 7.0 0.00 0.00 0.00 50 1017.6
20260508002532 67 68 3.0 7.0 0.00 0.00 0.00 49 1017.6
20260508002431 67 87 3.0 7.0 0.00 0.00 0.00 48 1017.6
20260508002333 67 72 3.0 7.0 0.00 0.00 0.00 48 1017.7
20260508002230 67 74 3.0 7.0 0.00 0.00 0.00 48 1017.5
20260508002131 67 81 3.0 7.0 0.00 0.00 0.00 48 1017.6
20260508002031 67 73 3.0 7.0 0.00 0.00 0.00 48 1017.6
20260508001930 67 73 3.0 7.0 0.00 0.00 0.00 48 1017.6
20260508001831 67 76 3.0 7.0 0.00 0.00 0.00 48 1017.6
20260508001730 67 76 3.0 7.0 0.00 0.00 0.00 48 1017.6
20260508001632 67 79 3.0 5.0 0.00 0.00 0.00 49 1017.5
20260508001530 67 82 3.0 5.0 0.00 0.00 0.00 48 1017.6
20260508001433 67 81 3.0 5.0 0.00 0.00 0.00 49 1017.6
20260508001331 67 80 3.0 5.0 0.00 0.00 0.00 49 1017.5
20260508001232 67 89 3.0 5.0 0.00 0.00 0.00 49 1017.5
20260508001130 67 72 3.0 5.0 0.00 0.00 0.00 49 1017.6
20260508001032 67 81 3.0 5.0 0.00 0.00 0.00 48 1017.6
20260508000930 66 82 3.0 4.0 0.00 0.00 0.00 48 1017.6
20260508000831 66 81 3.0 4.0 0.00 0.00 0.00 48 1017.6
20260508000730 66 78 3.0 4.0 0.00 0.00 0.00 48 1017.6
20260508000630 66 83 3.0 4.0 0.00 0.00 0.00 48 1017.7
20260508000533 66 71 2.0 4.0 0.00 0.00 0.00 48 1017.6
20260508000434 66 77 2.0 4.0 0.00 0.00 0.00 49 1017.7
20260508000330 66 87 2.0 4.0 0.00 0.00 0.00 49 1017.7
20260508000230 66 95 2.0 4.0 0.00 0.00 0.00 49 1017.7
20260508000131 66 78 2.0 4.0 0.00 0.00 0.00 49 1017.7
20260508000031 66 86 2.0 4.0 0.00 0.00 0.00 49 1017.8
20260507235931 66 101 2.0 4.0 0.00 0.00 0.00 49 1017.8
20260507235832 66 99 2.0 4.0 0.00 0.00 0.00 49 1017.7
20260507235731 66 85 2.0 4.0 0.00 0.00 0.00 49 1017.8
20260507235633 66 85 2.0 4.0 0.00 0.00 0.00 49 1017.9
20260507235530 66 85 2.0 4.0 0.00 0.00 0.00 50 1017.9
20260507235432 66 84 2.0 4.0 0.00 0.00 0.00 50 1017.9
20260507235331 66 84 2.0 4.0 0.00 0.00 0.00 50 1017.9
20260507235231 65 80 1.0 4.0 0.00 0.00 0.00 51 1017.8
20260507235131 65 76 1.0 4.0 0.00 0.00 0.00 51 1017.9
20260507235031 65 76 1.0 4.0 0.00 0.00 0.00 52 1017.9
20260507234931 65 74 1.0 4.0 0.00 0.00 0.00 52 1018.0
20260507234831 65 71 1.0 3.0 0.00 0.00 0.00 53 1018.0
20260507234732 65 70 1.0 3.0 0.00 0.00 0.00 53 1018.0
20260507234630 65 74 1.0 3.0 0.00 0.00 0.00 53 1018.0
20260507234530 65 74 1.0 3.0 0.00 0.00 0.00 53 1018.1
20260507234430 65 74 1.0 3.0 0.00 0.00 0.00 53 1018.0
20260507234330 65 74 1.0 3.0 0.00 0.00 0.00 53 1018.1
20260507234230 65 74 1.0 3.0 0.00 0.00 0.00 53 1018.1
20260507234131 65 74 1.0 3.0 0.00 0.00 0.00 53 1018.1
20260507234032 65 74 1.0 3.0 0.00 0.00 0.00 53 1018.2
20260507233931 65 73 1.0 3.0 0.00 0.00 0.00 54 1018.2
20260507233830 65 81 1.0 3.0 0.00 0.00 0.00 54 1018.1
20260507233736 65 82 1.0 3.0 0.00 0.00 0.00 54 1018.1
20260507233631 65 82 1.0 3.0 0.00 0.00 0.00 54 1018.1
20260507233531 65 82 1.0 3.0 0.00 0.00 0.00 54 1018.1
20260507233430 65 83 1.0 4.0 0.00 0.00 0.00 54 1018.1
20260507233332 65 84 1.0 4.0 0.00 0.00 0.00 54 1018.1
20260507233232 65 84 1.0 4.0 0.00 0.00 0.00 54 1018.1
20260507233131 65 84 2.0 4.0 0.00 0.00 0.00 53 1018.2
20260507233032 65 84 2.0 4.0 0.00 0.00 0.00 53 1018.2
20260507232931 65 84 2.0 4.0 0.00 0.00 0.00 53 1018.2
20260507232832 65 84 2.0 4.0 0.00 0.00 0.00 53 1018.2
20260507232730 65 84 3.0 4.0 0.00 0.00 0.00 53 1018.0
20260507232630 65 84 2.0 4.0 0.00 0.00 0.00 53 1018.1
20260507232529 65 84 2.0 4.0 0.00 0.00 0.00 54 1018.0
20260507232431 65 85 2.0 4.0 0.00 0.00 0.00 54 1018.0
20260507232332 65 79 2.0 4.0 0.00 0.00 0.00 54 1018.0
20260507232232 65 79 2.0 4.0 0.00 0.00 0.00 54 1018.0
20260507232131 65 77 2.0 4.0 0.00 0.00 0.00 54 1018.0
20260507232032 65 76 1.0 4.0 0.00 0.00 0.00 55 1018.0
20260507231930 65 74 1.0 4.0 0.00 0.00 0.00 55 1018.0
20260507231830 65 75 1.0 4.0 0.00 0.00 0.00 55 1018.0
20260507231732 65 74 1.0 3.0 0.00 0.00 0.00 55 1018.1
20260507231631 65 74 1.0 3.0 0.00 0.00 0.00 55 1018.1
20260507231532 65 74 1.0 3.0 0.00 0.00 0.00 55 1018.2
20260507231432 65 74 1.0 3.0 0.00 0.00 0.00 56 1018.1
20260507231330 65 74 1.0 3.0 0.00 0.00 0.00 55 1018.1
20260507231230 65 74 0.0 2.0 0.00 0.00 0.00 55 1018.2
20260507231132 65 74 0.0 2.0 0.00 0.00 0.00 55 1018.2
20260507231032 65 74 0.0 2.0 0.00 0.00 0.00 55 1018.1
20260507230931 65 74 0.0 2.0 0.00 0.00 0.00 55 1018.2
20260507230831 65 74 0.0 2.0 0.00 0.00 0.00 55 1018.2
20260507230733 65 74 0.0 0.0 0.00 0.00 0.00 55 1018.3
20260507230630 65 74 0.0 0.0 0.00 0.00 0.00 54 1018.2
20260507230529 66 74 0.0 0.0 0.00 0.00 0.00 54 1018.3
20260507230432 66 74 0.0 0.0 0.00 0.00 0.00 54 1018.3
20260507230331 65 74 0.0 0.0 0.00 0.00 0.00 54 1018.4
20260507230230 66 74 0.0 0.0 0.00 0.00 0.00 54 1018.3
20260507230131 66 74 0.0 0.0 0.00 0.00 0.00 54 1018.3
20260507230030 66 74 0.0 0.0 0.00 0.00 0.00 54 1018.3
20260507225933 66 74 0.0 0.0 0.00 0.00 0.00 54 1018.4
20260507225832 66 74 0.0 0.0 0.00 0.00 0.00 54 1018.4
20260507225731 66 74 0.0 0.0 0.00 0.00 0.00 55 1018.4
20260507225631 66 74 0.0 0.0 0.00 0.00 0.00 55 1018.4
20260507225532 66 74 0.0 0.0 0.00 0.00 0.00 55 1018.4
20260507225431 66 74 0.0 0.0 0.00 0.00 0.00 55 1018.4
20260507225330 66 74 0.0 1.0 0.00 0.00 0.00 55 1018.5
20260507225231 66 74 0.0 2.0 0.00 0.00 0.00 55 1018.5
20260507225133 66 74 0.0 2.0 0.00 0.00 0.00 55 1018.4
20260507225031 66 74 0.0 2.0 0.00 0.00 0.00 55 1018.5
20260507224929 66 74 0.0 2.0 0.00 0.00 0.00 55 1018.6
20260507224831 66 74 0.0 2.0 0.00 0.00 0.00 55 1018.5
20260507224730 66 74 0.0 2.0 0.00 0.00 0.00 55 1018.6
20260507224632 66 74 0.0 2.0 0.00 0.00 0.00 55 1018.6
20260507224530 66 74 0.0 2.0 0.00 0.00 0.00 55 1018.6
20260507224431 66 74 0.0 2.0 0.00 0.00 0.00 55 1018.5
20260507224331 66 74 0.0 2.0 0.00 0.00 0.00 54 1018.6
20260507224231 66 74 0.0 2.0 0.00 0.00 0.00 54 1018.6
20260507224130 66 74 0.0 2.0 0.00 0.00 0.00 54 1018.6
20260507224031 66 74 0.0 2.0 0.00 0.00 0.00 54 1018.6
20260507223930 66 74 0.0 1.0 0.00 0.00 0.00 53 1018.6
20260507223832 66 74 0.0 0.0 0.00 0.00 0.00 53 1018.6
20260507223732 66 74 0.0 0.0 0.00 0.00 0.00 53 1018.7
20260507223630 66 74 0.0 0.0 0.00 0.00 0.00 53 1018.7
20260507223532 66 74 0.0 0.0 0.00 0.00 0.00 53 1018.7
20260507223432 66 74 0.0 0.0 0.00 0.00 0.00 53 1018.7
20260507223331 66 74 0.0 1.0 0.00 0.00 0.00 53 1018.7
20260507223230 66 74 0.0 2.0 0.00 0.00 0.00 53 1018.7
20260507223132 66 74 0.0 3.0 0.00 0.00 0.00 53 1018.6
20260507223032 66 74 0.0 3.0 0.00 0.00 0.00 54 1018.7
20260507222930 66 74 1.0 3.0 0.00 0.00 0.00 53 1018.6
20260507222830 66 74 1.0 3.0 0.00 0.00 0.00 53 1018.6
20260507222730 66 74 1.0 3.0 0.00 0.00 0.00 53 1018.5
20260507222633 66 74 1.0 3.0 0.00 0.00 0.00 53 1018.5
20260507222530 66 74 1.0 3.0 0.00 0.00 0.00 53 1018.5
20260507222430 66 74 1.0 3.0 0.00 0.00 0.00 54 1018.5
20260507222331 66 74 1.0 3.0 0.00 0.00 0.00 53 1018.5
20260507222230 66 74 1.0 4.0 0.00 0.00 0.00 53 1018.5
20260507222137 66 74 1.0 4.0 0.00 0.00 0.00 53 1018.5
20260507222031 66 74 2.0 4.0 0.00 0.00 0.00 52 1018.5
20260507221930 66 74 2.0 4.0 0.00 0.00 0.00 52 1018.5
20260507221832 66 74 2.0 4.0 0.00 0.00 0.00 52 1018.5
20260507221730 66 74 2.0 4.0 0.00 0.00 0.00 51 1018.5
20260507221632 66 74 2.0 4.0 0.00 0.00 0.00 51 1018.5
20260507221530 66 74 2.0 4.0 0.00 0.00 0.00 51 1018.6
20260507221431 66 74 2.0 4.0 0.00 0.00 0.00 51 1018.6
20260507221330 66 76 2.0 4.0 0.00 0.00 0.00 51 1018.5
20260507221235 66 79 2.0 4.0 0.00 0.00 0.00 51 1018.5
20260507221129 66 74 1.0 4.0 0.00 0.00 0.00 51 1018.5
20260507221031 66 70 1.0 3.0 0.00 0.00 0.00 52 1018.6
20260507220931 66 70 1.0 3.0 0.00 0.00 0.00 52 1018.5
20260507220831 66 73 1.0 3.0 0.00 0.00 0.00 52 1018.6
20260507220730 66 70 0.0 3.0 0.00 0.00 0.00 52 1018.6
20260507220631 66 72 0.0 2.0 0.00 0.00 0.00 52 1018.6
20260507220530 66 72 0.0 2.0 0.00 0.00 0.00 52 1018.7
20260507220431 66 72 0.0 2.0 0.00 0.00 0.00 52 1018.6
20260507220331 66 72 0.0 2.0 0.00 0.00 0.00 52 1018.5
20260507220233 66 72 0.0 2.0 0.00 0.00 0.00 53 1018.6
20260507220131 66 72 0.0 2.0 0.00 0.00 0.00 53 1018.6
20260507220030 66 72 0.0 2.0 0.00 0.00 0.00 53 1018.6
20260507215930 66 72 0.0 2.0 0.00 0.00 0.00 53 1018.6
20260507215830 66 72 0.0 2.0 0.00 0.00 0.00 53 1018.6
20260507215730 66 72 0.0 2.0 0.00 0.00 0.00 53 1018.7
20260507215631 66 72 0.0 2.0 0.00 0.00 0.00 53 1018.6
20260507215530 66 72 0.0 2.0 0.00 0.00 0.00 53 1018.6
20260507215433 66 72 0.0 2.0 0.00 0.00 0.00 53 1018.7
20260507215330 66 72 0.0 3.0 0.00 0.00 0.00 53 1018.7
20260507215231 66 72 0.0 3.0 0.00 0.00 0.00 53 1018.6
20260507215130 66 72 0.0 3.0 0.00 0.00 0.00 53 1018.7
20260507215031 66 72 1.0 3.0 0.00 0.00 0.00 52 1018.6
20260507214930 66 72 1.0 3.0 0.00 0.00 0.00 52 1018.6
20260507214831 66 72 1.0 3.0 0.00 0.00 0.00 52 1018.7
20260507214731 66 72 1.0 4.0 0.00 0.00 0.00 52 1018.6
20260507214632 66 72 1.0 4.0 0.00 0.00 0.00 52 1018.6
20260507214530 66 72 1.0 4.0 0.00 0.00 0.00 52 1018.6
20260507214430 66 72 1.0 4.0 0.00 0.00 0.00 52 1018.7
20260507214331 66 72 1.0 4.0 0.00 0.00 0.00 52 1018.6
20260507214231 66 72 1.0 4.0 0.00 0.00 0.00 52 1018.7
20260507214131 66 72 1.0 4.0 0.00 0.00 0.00 52 1018.6
20260507214031 66 72 1.0 4.0 0.00 0.00 0.00 52 1018.6
20260507213930 66 72 1.0 4.0 0.00 0.00 0.00 52 1018.7
20260507213832 66 74 1.0 4.0 0.00 0.00 0.00 52 1018.6
20260507213731 66 75 0.0 3.0 0.00 0.00 0.00 52 1018.7
20260507213630 66 76 0.0 3.0 0.00 0.00 0.00 52 1018.7
20260507213531 66 76 0.0 2.0 0.00 0.00 0.00 52 1018.8
20260507213431 67 76 0.0 1.0 0.00 0.00 0.00 52 1018.9
20260507213332 67 76 0.0 1.0 0.00 0.00 0.00 51 1018.8
20260507213232 67 76 0.0 1.0 0.00 0.00 0.00 51 1018.8
20260507213130 67 76 0.0 1.0 0.00 0.00 0.00 51 1018.9
20260507213026 67 76 0.0 1.0 0.00 0.00 0.00 51 1018.9
20260507212926 67 76 0.0 1.0 0.00 0.00 0.00 51 1018.9
20260507212825 67 76 0.0 1.0 0.00 0.00 0.00 51 1018.9
20260507212726 67 76 0.0 1.0 0.00 0.00 0.00 51 1018.9
20260507212624 67 76 0.0 2.0 0.00 0.00 0.00 50 1019.0
20260507212522 67 76 0.0 2.0 0.00 0.00 0.00 50 1018.9
20260507212419 67 76 1.0 3.0 0.00 0.00 0.00 50 1018.9
20260507212315 67 76 1.0 4.0 0.00 0.00 0.00 50 1018.9
20260507212213 67 76 1.0 4.0 0.00 0.00 0.00 50 1018.9
20260507212112 67 76 1.0 4.0 0.00 0.00 0.00 50 1018.8
20260507212022 67 76 1.0 4.0 0.00 0.00 0.00 50 1018.8
20260507211913 67 76 2.0 4.0 0.00 0.00 0.00 50 1018.8
20260507211810 67 76 2.0 4.0 0.00 0.00 0.00 50 1018.7
20260507211705 67 76 2.0 4.0 0.00 0.00 0.00 49 1018.7
20260507211605 67 76 2.0 4.0 0.00 0.00 0.00 49 1018.7
20260507211507 67 76 1.0 4.0 0.00 0.00 0.00 49 1018.6
20260507211405 67 74 1.0 4.0 0.00 0.00 0.00 48 1018.6
20260507211304 67 74 1.0 3.0 0.00 0.00 0.00 48 1018.6
20260507211203 67 74 1.0 3.0 0.00 0.00 0.00 48 1018.5
20260507211103 67 74 1.0 3.0 0.00 0.00 0.00 48 1018.6
20260507211005 67 74 1.0 3.0 0.00 0.00 0.00 48 1018.5
20260507210904 67 74 1.0 3.0 0.00 0.00 0.00 48 1018.5
20260507210804 67 74 1.0 3.0 0.00 0.00 0.00 48 1018.5
20260507210705 67 74 1.0 3.0 0.00 0.00 0.00 47 1018.5
20260507210603 67 74 1.0 3.0 0.00 0.00 0.00 47 1018.5
20260507210504 67 74 1.0 3.0 0.00 0.00 0.00 47 1018.5
20260507210402 67 74 1.0 3.0 0.00 0.00 0.00 46 1018.6
20260507210304 67 74 1.0 3.0 0.00 0.00 0.00 46 1018.6
20260507210203 67 74 1.0 3.0 0.00 0.00 0.00 46 1018.6
20260507210006 67 74 0.0 3.0 0.00 0.00 0.00 46 1018.6
20260507205905 67 74 0.0 3.0 0.00 0.00 0.00 46 1018.6
20260507205803 67 74 0.0 3.0 0.00 0.00 0.00 46 1018.7
20260507205704 67 75 0.0 2.0 0.00 0.00 0.00 47 1018.5
20260507205603 67 74 0.0 0.0 0.00 0.00 0.00 47 1018.6
20260507205504 67 75 0.0 0.0 0.00 0.00 0.00 46 1018.7
20260507205404 67 75 0.0 0.0 0.00 0.00 0.00 46 1018.6
20260507205306 67 75 0.0 0.0 0.00 0.00 0.00 46 1018.6
20260507205200 67 74 0.0 0.0 0.00 0.00 0.00 46 1018.6
20260507205104 67 75 0.0 0.0 0.00 0.00 0.00 46 1018.7
20260507204954 67 75 0.0 3.0 0.00 0.00 0.00 46 1018.7
20260507204853 67 75 1.0 3.0 0.00 0.00 0.00 46 1018.7
20260507204753 67 75 1.0 3.0 0.00 0.00 0.00 46 1018.6
20260507204653 67 75 1.0 3.0 0.00 0.00 0.00 46 1018.7
20260507204546 68 75 1.0 3.0 0.00 0.00 0.00 45 1018.7
20260507204447 68 75 1.0 3.0 0.00 0.00 0.00 44 1018.7
20260507204349 68 75 1.0 3.0 0.00 0.00 0.00 43 1018.6
20260507204247 68 75 1.0 3.0 0.00 0.00 0.00 41 1018.6
20260507204148 68 75 1.0 3.0 0.00 0.00 0.00 41 1018.6
20260507204044 68 75 1.0 3.0 0.00 0.00 0.00 41 1018.6
20260507203940 68 75 1.0 3.0 0.00 0.00 0.00 41 1018.5
20260507203841 68 75 1.0 3.0 0.00 0.00 0.00 41 1018.5
20260507203741 68 76 1.0 3.0 0.00 0.00 0.00 42 1018.5
20260507203642 68 75 1.0 4.0 0.00 0.00 0.00 42 1018.5
20260507203538 68 75 1.0 4.0 0.00 0.00 0.00 42 1018.4
20260507203436 68 75 1.0 5.0 0.00 0.00 0.00 42 1018.3
20260507203334 68 75 2.0 5.0 0.00 0.00 0.00 42 1018.4
20260507203236 68 75 2.0 5.0 0.00 0.00 0.00 43 1018.4
20260507203134 68 75 2.0 5.0 0.00 0.00 0.00 43 1018.5
20260507203037 68 75 3.0 5.0 0.00 0.00 0.00 43 1018.5
20260507202932 68 75 3.0 5.0 0.00 0.00 0.00 43 1018.5
20260507202834 68 75 3.0 5.0 0.00 0.00 0.00 43 1018.5
20260507202732 68 73 3.0 5.0 0.00 0.00 0.00 43 1018.5
20260507202632 68 76 3.0 5.0 0.00 0.00 0.00 43 1018.4
20260507202534 68 74 3.0 5.0 0.00 0.00 0.00 43 1018.4
20260507202432 68 67 3.0 5.0 0.00 0.00 0.00 43 1018.3
20260507202330 68 70 3.0 6.0 0.00 0.00 0.00 43 1018.4
20260507202232 68 67 3.0 7.0 0.00 0.00 0.00 42 1018.3
20260507202130 68 71 3.0 7.0 0.00 0.00 0.00 42 1018.4
20260507202033 68 83 3.0 7.0 0.00 0.00 0.00 43 1018.4
20260507201931 68 83 3.0 7.0 0.00 0.00 0.00 43 1018.4
20260507201834 68 71 3.0 7.0 0.00 0.00 0.00 44 1018.3
20260507201732 68 70 4.0 7.0 0.00 0.00 0.00 45 1018.4
20260507201632 68 70 4.0 7.0 0.00 0.00 0.00 45 1018.4
20260507201532 68 76 4.0 7.0 0.00 0.00 0.00 45 1018.3
20260507201433 68 70 4.0 7.0 0.00 0.00 0.00 44 1018.3
20260507201330 68 76 4.0 7.0 0.00 0.00 0.00 44 1018.3
20260507201231 68 67 4.0 7.0 0.00 0.00 0.00 43 1018.3
20260507201131 68 72 4.0 7.0 0.00 0.00 0.00 43 1018.2
20260507201044 68 79 4.0 7.0 0.00 0.00 0.00 43 1018.2
20260507200932 68 74 3.0 7.0 0.00 0.00 0.00 43 1018.3
20260507200833 68 77 3.0 7.0 0.00 0.00 0.00 42 1018.2
20260507200730 68 91 3.0 7.0 0.00 0.00 0.00 41 1018.3
20260507200632 67 75 3.0 7.0 0.00 0.00 0.00 41 1018.2
20260507200531 67 72 3.0 7.0 0.00 0.00 0.00 42 1018.2
20260507200431 67 75 3.0 7.0 0.00 0.00 0.00 42 1018.3
20260507200332 67 76 3.0 7.0 0.00 0.00 0.00 43 1018.2
20260507200230 67 77 2.0 5.0 0.00 0.00 0.00 43 1018.2
20260507200133 67 80 2.0 5.0 0.00 0.00 0.00 43 1018.2
20260507200050 67 79 2.0 5.0 0.00 0.00 0.00 43 1018.2
20260507195932 67 78 2.0 4.0 0.00 0.00 0.00 43 1018.2
20260507195834 67 79 2.0 4.0 0.00 0.00 0.00 43 1018.2
20260507195732 67 76 2.0 4.0 0.00 0.00 0.00 44 1018.3
20260507195631 67 72 2.0 4.0 0.00 0.00 0.00 44 1018.4
20260507195530 67 72 2.0 4.0 0.00 0.00 0.00 44 1018.4
20260507195430 67 73 2.0 4.0 0.00 0.00 0.00 44 1018.4
20260507195334 67 73 2.0 4.0 0.00 0.00 0.00 44 1018.4
20260507195231 67 73 2.0 4.0 0.00 0.00 0.00 44 1018.5
20260507195132 67 73 2.0 4.0 0.00 0.00 0.00 44 1018.5
20260507195030 67 73 2.0 4.0 0.00 0.00 0.00 44 1018.5
20260507194931 67 73 2.0 4.0 0.00 0.00 0.00 44 1018.5
20260507194833 67 73 2.0 4.0 0.00 0.00 0.00 44 1018.6
20260507194731 67 74 2.0 4.0 0.00 0.00 0.00 44 1018.6
20260507194631 67 75 2.0 4.0 0.00 0.00 0.00 44 1018.6
20260507194533 67 74 2.0 4.0 0.00 0.00 0.00 44 1018.6
20260507194432 67 75 2.0 3.0 0.00 0.00 0.00 45 1018.6
20260507194333 67 74 2.0 3.0 0.00 0.00 0.00 45 1018.6
20260507194232 67 75 2.0 3.0 0.00 0.00 0.00 45 1018.6
20260507194131 67 74 2.0 3.0 0.00 0.00 0.00 45 1018.6
20260507194031 67 74 2.0 3.0 0.00 0.00 0.00 45 1018.6
20260507193931 67 74 2.0 3.0 0.00 0.00 0.00 44 1018.6
20260507193834 67 76 1.0 3.0 0.00 0.00 0.00 44 1018.5
20260507193732 67 77 1.0 3.0 0.00 0.00 0.00 44 1018.7
20260507193631 67 77 1.0 3.0 0.00 0.00 0.00 44 1018.5
20260507193531 67 78 1.0 3.0 0.00 0.00 0.00 44 1018.6
20260507193430 67 79 1.0 3.0 0.00 0.00 0.00 44 1018.6
20260507193331 67 79 0.0 2.0 0.00 0.00 0.00 45 1018.6
20260507193249 67 79 0.0 2.0 0.00 0.00 0.00 45 1018.5
20260507193131 67 79 0.0 2.0 0.00 0.00 0.00 45 1018.6
20260507193032 67 79 0.0 2.0 0.00 0.00 0.00 45 1018.6
20260507192932 67 79 0.0 2.0 0.00 0.00 0.00 45 1018.5
20260507192833 67 79 0.0 2.0 0.00 0.00 0.00 45 1018.6
20260507192731 67 79 0.0 3.0 0.00 0.00 0.00 45 1018.5
20260507192632 67 79 1.0 3.0 0.00 0.00 0.00 45 1018.5
20260507192531 67 79 1.0 3.0 0.00 0.00 0.00 45 1018.6
20260507192432 67 79 1.0 4.0 0.00 0.00 0.00 46 1018.5
20260507192332 67 79 1.0 4.0 0.00 0.00 0.00 46 1018.5
20260507192226 67 79 2.0 4.0 0.00 0.00 0.00 46 1018.5
20260507192128 67 79 2.0 4.0 0.00 0.00 0.00 46 1018.5
20260507192028 67 79 2.0 5.0 0.00 0.00 0.00 46 1018.6
20260507191927 67 79 3.0 5.0 0.00 0.00 0.00 46 1018.5
20260507191825 67 79 3.0 8.0 0.00 0.00 0.00 47 1018.6
20260507191718 67 79 3.0 8.0 0.00 0.00 0.00 47 1018.5
20260507191619 67 79 4.0 8.0 0.00 0.00 0.00 47 1018.6
20260507191524 67 81 4.0 8.0 0.00 0.00 0.00 48 1018.6
20260507191424 67 81 4.0 8.0 0.00 0.00 0.00 49 1018.6
20260507191318 67 80 4.0 8.0 0.00 0.00 0.00 49 1018.7
20260507191219 67 80 4.0 8.0 0.00 0.00 0.00 50 1018.7
20260507191120 67 96 4.0 8.0 0.00 0.00 0.00 50 1018.6
20260507191018 67 80 4.0 8.0 0.00 0.00 0.00 50 1018.6
20260507190920 67 81 4.0 8.0 0.00 0.00 0.00 50 1018.7
20260507190835 67 79 4.0 8.0 0.00 0.00 0.00 49 1018.7
20260507190720 67 79 4.0 8.0 0.00 0.00 0.00 48 1018.7
20260507190619 67 74 4.0 7.0 0.00 0.00 0.00 48 1018.7
20260507190518 67 76 4.0 7.0 0.00 0.00 0.00 47 1018.6
20260507190418 67 87 4.0 7.0 0.00 0.00 0.00 46 1018.6
20260507190319 67 78 4.0 7.0 0.00 0.00 0.00 47 1018.7
20260507190218 67 79 4.0 7.0 0.00 0.00 0.00 47 1018.7
20260507190119 67 78 4.0 7.0 0.00 0.00 0.00 48 1018.7
20260507190018 67 74 4.0 7.0 0.00 0.00 0.00 48 1018.8
20260507185920 67 74 4.0 7.0 0.00 0.00 0.00 49 1018.8
20260507185818 67 79 4.0 7.0 0.00 0.00 0.00 49 1018.8
20260507185718 67 80 4.0 6.0 0.00 0.00 0.00 49 1018.9
20260507185618 67 76 3.0 5.0 0.00 0.00 0.00 49 1018.8
20260507185520 67 73 3.0 5.0 0.00 0.00 0.00 49 1018.9
20260507185420 67 76 2.0 5.0 0.00 0.00 0.00 49 1018.8
20260507185316 67 73 2.0 5.0 0.00 0.00 0.00 49 1018.8
20260507185217 67 71 2.0 5.0 0.00 0.00 0.00 49 1018.9
20260507185117 67 77 2.0 5.0 0.00 0.00 0.00 49 1018.9
20260507185017 67 75 2.0 5.0 0.00 0.00 0.00 49 1018.8
20260507184917 67 70 2.0 5.0 0.00 0.00 0.00 49 1018.8
20260507184818 67 71 2.0 5.0 0.00 0.00 0.00 49 1018.8
20260507184717 67 71 2.0 5.0 0.00 0.00 0.00 49 1018.8
20260507184619 67 72 2.0 5.0 0.00 0.00 0.00 49 1018.8
20260507184516 67 72 2.0 5.0 0.00 0.00 0.00 49 1018.9
20260507184417 67 72 2.0 5.0 0.00 0.00 0.00 48 1018.8
20260507184317 67 72 2.0 5.0 0.00 0.00 0.00 48 1018.8
20260507184231 67 73 2.0 5.0 0.00 0.00 0.00 48 1018.7
20260507184116 67 68 2.0 4.0 0.00 0.00 0.00 48 1018.7
20260507184026 67 68 2.0 4.0 0.00 0.00 0.00 48 1018.7
20260507183924 67 68 2.0 4.0 0.00 0.00 0.00 48 1018.7
20260507183816 67 63 2.0 5.0 0.00 0.00 0.00 49 1018.7
20260507183717 67 63 2.0 5.0 0.00 0.00 0.00 49 1018.8
20260507183616 67 72 2.0 5.0 0.00 0.00 0.00 50 1018.7
20260507183518 67 50 3.0 7.0 0.00 0.00 0.00 50 1018.7
20260507183412 67 75 3.0 7.0 0.00 0.00 0.00 50 1018.7
20260507183313 67 76 3.0 7.0 0.00 0.00 0.00 50 1018.7
20260507183212 67 76 3.0 7.0 0.00 0.00 0.00 50 1018.7
20260507183113 67 80 3.0 7.0 0.00 0.00 0.00 50 1018.8
20260507183012 67 76 3.0 7.0 0.00 0.00 0.00 50 1018.7
20260507182915 67 74 2.0 7.0 0.00 0.00 0.00 50 1018.7
20260507182812 67 76 2.0 7.0 0.00 0.00 0.00 50 1018.7
20260507182713 67 81 2.0 7.0 0.00 0.00 0.00 50 1018.6
20260507182614 67 78 1.0 7.0 0.00 0.00 0.00 50 1018.6
20260507182512 68 78 1.0 7.0 0.00 0.00 0.00 50 1018.7
20260507182413 68 82 1.0 4.0 0.00 0.00 0.00 49 1018.6
20260507182312 68 72 1.0 5.0 0.00 0.00 0.00 50 1018.6
20260507182212 68 64 1.0 5.0 0.00 0.00 0.00 50 1018.6
20260507182113 68 64 1.0 5.0 0.00 0.00 0.00 51 1018.5
20260507182012 68 64 1.0 5.0 0.00 0.00 0.00 51 1018.5
20260507181912 68 64 2.0 5.0 0.00 0.00 0.00 51 1018.6
20260507181812 68 64 2.0 5.0 0.00 0.00 0.00 51 1018.5
20260507181713 68 64 2.0 5.0 0.00 0.00 0.00 51 1018.6
20260507181614 68 64 2.0 5.0 0.00 0.00 0.00 51 1018.6
20260507181507 68 64 1.0 5.0 0.00 0.00 0.00 51 1018.6
20260507181408 68 63 1.0 5.0 0.00 0.00 0.00 51 1018.6
20260507181308 68 67 1.0 4.0 0.00 0.00 0.00 51 1018.6
20260507181209 68 69 1.0 4.0 0.00 0.00 0.00 51 1018.6
20260507181109 68 73 0.0 3.0 0.00 0.00 0.00 50 1018.6
20260507181009 68 74 0.0 3.0 0.00 0.00 0.00 50 1018.6
20260507180909 68 73 0.0 3.0 0.00 0.00 0.00 50 1018.6
20260507180810 68 72 0.0 2.0 0.00 0.00 0.00 50 1018.6
20260507180710 68 72 0.0 2.0 0.00 0.00 0.00 50 1018.7
20260507180609 68 72 1.0 2.0 0.00 0.00 0.00 50 1018.7
20260507180509 68 72 1.0 2.0 0.00 0.00 0.00 50 1018.6
20260507180409 68 72 1.0 2.0 0.00 0.00 0.00 50 1018.7
20260507180309 68 72 1.0 2.0 0.00 0.00 0.00 50 1018.7
20260507180208 68 72 1.0 2.0 0.00 0.00 0.00 50 1018.7
20260507180107 68 72 1.0 2.0 0.00 0.00 0.00 50 1018.7
20260507180022 68 72 1.0 2.0 0.00 0.00 0.00 50 1018.7
20260507175909 68 72 1.0 2.0 0.00 0.00 0.00 50 1018.7
20260507175808 68 72 1.0 2.0 0.00 0.00 0.00 50 1018.7
20260507175710 68 72 1.0 2.0 0.00 0.00 0.00 50 1018.7
20260507175604 68 72 0.0 2.0 0.00 0.00 0.00 50 1018.6
20260507175504 68 72 0.0 2.0 0.00 0.00 0.00 50 1018.6
20260507175405 68 72 0.0 2.0 0.00 0.00 0.00 50 1018.7
20260507175307 68 72 0.0 2.0 0.00 0.00 0.00 49 1018.6
20260507175204 68 72 1.0 2.0 0.00 0.00 0.00 49 1018.6
20260507175106 68 72 1.0 2.0 0.00 0.00 0.00 49 1018.6
20260507175005 68 72 1.0 3.0 0.00 0.00 0.00 49 1018.5
20260507174910 68 72 1.0 3.0 0.00 0.00 0.00 49 1018.5
20260507174804 68 72 1.0 4.0 0.00 0.00 0.00 49 1018.6
20260507174704 68 72 2.0 4.0 0.00 0.00 0.00 49 1018.6
20260507174604 68 72 2.0 4.0 0.00 0.00 0.00 49 1018.6
20260507174504 68 72 2.0 4.0 0.00 0.00 0.00 49 1018.6
20260507174408 69 72 2.0 4.0 0.00 0.00 0.00 49 1018.6
20260507174306 69 72 2.0 4.0 0.00 0.00 0.00 49 1018.6
20260507174205 69 72 2.0 4.0 0.00 0.00 0.00 49 1018.5
20260507174102 69 72 2.0 4.0 0.00 0.00 0.00 50 1018.5
20260507174004 69 73 2.0 4.0 0.00 0.00 0.00 49 1018.5
20260507173907 69 72 2.0 4.0 0.00 0.00 0.00 49 1018.5
20260507173804 69 64 1.0 3.0 0.00 0.00 0.00 49 1018.5
20260507173702 69 62 1.0 3.0 0.00 0.00 0.00 49 1018.5
20260507173604 69 60 1.0 3.0 0.00 0.00 0.00 49 1018.4
20260507173505 69 60 1.0 3.0 0.00 0.00 0.00 49 1018.5
20260507173404 69 58 1.0 3.0 0.00 0.00 0.00 49 1018.6
20260507173313 69 54 0.0 3.0 0.00 0.00 0.00 49 1018.5
20260507173204 69 52 0.0 3.0 0.00 0.00 0.00 48 1018.5
20260507173103 69 51 0.0 3.0 0.00 0.00 0.00 48 1018.4
20260507173006 69 51 1.0 3.0 0.00 0.00 0.00 48 1018.5
20260507172905 70 52 1.0 3.0 0.00 0.00 0.00 48 1018.5
20260507172804 70 51 1.0 2.0 0.00 0.00 0.00 48 1018.5
20260507172705 70 51 1.0 2.0 0.00 0.00 0.00 48 1018.5
20260507172617 70 51 1.0 2.0 0.00 0.00 0.00 48 1018.5
20260507172529 70 51 1.0 2.0 0.00 0.00 0.00 48 1018.6
20260507172403 70 51 1.0 2.0 0.00 0.00 0.00 48 1018.6
20260507172306 70 51 1.0 2.0 0.00 0.00 0.00 48 1018.7
20260507172202 70 51 1.0 2.0 0.00 0.00 0.00 48 1018.6
20260507172102 70 51 1.0 2.0 0.00 0.00 0.00 47 1018.6
20260507172003 70 51 1.0 2.0 0.00 0.00 0.00 47 1018.7
20260507171905 70 348 1.0 2.0 0.00 0.00 0.00 47 1018.7
20260507171803 70 348 1.0 2.0 0.00 0.00 0.00 48 1018.7
20260507171714 70 348 1.0 2.0 0.00 0.00 0.00 48 1018.7
20260507171610 70 338 1.0 2.0 0.00 0.00 0.00 48 1018.7
20260507171504 70 338 0.0 2.0 0.00 0.00 0.00 48 1018.7
20260507171402 70 338 0.0 2.0 0.00 0.00 0.00 48 1018.7
20260507171302 71 338 0.0 2.0 0.00 0.00 0.00 48 1018.8
20260507171203 71 289 0.0 1.0 0.00 0.00 0.00 48 1018.8
20260507171106 71 288 0.0 1.0 0.00 0.00 0.00 48 1018.7
20260507171005 71 288 0.0 1.0 0.00 0.00 0.00 48 1018.7
20260507170914 71 288 0.0 1.0 0.00 0.00 0.00 48 1018.6
20260507170802 71 288 0.0 1.0 0.00 0.00 0.00 48 1018.7
20260507170707 71 288 0.0 1.0 0.00 0.00 0.00 48 1018.7
20260507170603 71 288 0.0 1.0 0.00 0.00 0.00 48 1018.6
20260507170518 71 288 0.0 1.0 0.00 0.00 0.00 48 1018.6
20260507170402 71 288 0.0 1.0 0.00 0.00 0.00 49 1018.5
20260507170305 71 287 0.0 0.0 0.00 0.00 0.00 49 1018.6
20260507170202 71 287 0.0 0.0 0.00 0.00 0.00 49 1018.5
20260507170104 71 287 0.0 0.0 0.00 0.00 0.00 48 1018.5
20260507170003 71 287 0.0 0.0 0.00 0.00 0.00 48 1018.5
20260507165903 71 287 0.0 0.0 0.00 0.00 0.00 48 1018.5
20260507165803 71 287 0.0 0.0 0.00 0.00 0.00 48 1018.5
20260507165703 71 287 0.0 0.0 0.00 0.00 0.00 49 1018.5
20260507165603 71 287 0.0 0.0 0.00 0.00 0.00 49 1018.3
20260507165507 71 287 0.0 1.0 0.00 0.00 0.00 49 1018.3
20260507165403 71 287 0.0 1.0 0.00 0.00 0.00 49 1018.4
20260507165306 71 287 0.0 1.0 0.00 0.00 0.00 49 1018.4
20260507165204 71 287 0.0 1.0 0.00 0.00 0.00 49 1018.3
20260507165104 71 287 0.0 1.0 0.00 0.00 0.00 49 1018.4
20260507165004 71 287 0.0 1.0 0.00 0.00 0.00 48 1018.4
20260507164903 71 287 0.0 2.0 0.00 0.00 0.00 48 1018.4
20260507164804 71 287 0.0 2.0 0.00 0.00 0.00 49 1018.5
20260507164706 71 287 0.0 2.0 0.00 0.00 0.00 48 1018.5
20260507164602 71 287 0.0 2.0 0.00 0.00 0.00 48 1018.5
20260507164504 71 287 0.0 2.0 0.00 0.00 0.00 48 1018.5
20260507164402 71 287 0.0 2.0 0.00 0.00 0.00 49 1018.4
20260507164303 71 287 1.0 2.0 0.00 0.00 0.00 49 1018.5
20260507164206 71 287 1.0 2.0 0.00 0.00 0.00 49 1018.5
20260507164104 71 287 1.0 2.0 0.00 0.00 0.00 49 1018.5
20260507164005 71 287 1.0 2.0 0.00 0.00 0.00 49 1018.5
20260507163904 71 286 1.0 2.0 0.00 0.00 0.00 48 1018.5
20260507163804 71 286 1.0 2.0 0.00 0.00 0.00 48 1018.6
20260507163702 71 286 1.0 2.0 0.00 0.00 0.00 48 1018.6
20260507163603 71 286 1.0 2.0 0.00 0.00 0.00 48 1018.5
20260507163504 71 286 1.0 2.0 0.00 0.00 0.00 48 1018.4
20260507163404 71 286 1.0 2.0 0.00 0.00 0.00 49 1018.5
20260507163304 71 286 1.0 2.0 0.00 0.00 0.00 49 1018.4
20260507163204 71 286 1.0 2.0 0.00 0.00 0.00 49 1018.4
20260507163104 71 286 1.0 2.0 0.00 0.00 0.00 49 1018.3
20260507163007 71 286 1.0 2.0 0.00 0.00 0.00 49 1018.3
20260507162904 71 286 1.0 2.0 0.00 0.00 0.00 49 1018.4
20260507162804 71 286 1.0 2.0 0.00 0.00 0.00 49 1018.5
20260507162704 71 286 1.0 3.0 0.00 0.00 0.00 49 1018.4
20260507162611 71 286 1.0 3.0 0.00 0.00 0.00 49 1018.4
20260507162505 71 286 1.0 3.0 0.00 0.00 0.00 49 1018.4
20260507162404 71 286 1.0 3.0 0.00 0.00 0.00 50 1018.3
20260507162307 71 286 1.0 3.0 0.00 0.00 0.00 50 1018.3
20260507162203 71 286 1.0 3.0 0.00 0.00 0.00 50 1018.4
20260507162103 71 286 1.0 3.0 0.00 0.00 0.00 50 1018.3
20260507162006 71 286 1.0 3.0 0.00 0.00 0.00 50 1018.4
20260507161904 71 286 1.0 3.0 0.00 0.00 0.00 50 1018.4
20260507161804 71 286 1.0 3.0 0.00 0.00 0.00 50 1018.3
20260507161703 71 286 1.0 3.0 0.00 0.00 0.00 50 1018.3
20260507161604 71 286 1.0 3.0 0.00 0.00 0.00 50 1018.3
20260507161507 72 286 1.0 3.0 0.00 0.00 0.00 50 1018.2
20260507161404 72 286 1.0 3.0 0.00 0.00 0.00 50 1018.3
20260507161302 72 286 1.0 3.0 0.00 0.00 0.00 50 1018.3
20260507161203 72 286 1.0 3.0 0.00 0.00 0.00 50 1018.3
20260507161106 72 286 1.0 3.0 0.00 0.00 0.00 50 1018.3
20260507161001 72 286 1.0 3.0 0.00 0.00 0.00 50 1018.3
20260507160902 72 286 1.0 3.0 0.00 0.00 0.00 50 1018.3
20260507160801 72 286 1.0 3.0 0.00 0.00 0.00 50 1018.4
20260507160701 72 286 1.0 4.0 0.00 0.00 0.00 49 1018.5
20260507160558 72 286 1.0 4.0 0.00 0.00 0.00 49 1018.5
20260507160458 72 286 1.0 4.0 0.00 0.00 0.00 49 1018.4
20260507160356 72 286 2.0 4.0 0.00 0.00 0.00 49 1018.5
20260507160255 72 286 2.0 4.0 0.00 0.00 0.00 49 1018.5
20260507160153 72 286 1.0 4.0 0.00 0.00 0.00 49 1018.4
20260507160052 72 286 2.0 4.0 0.00 0.00 0.00 49 1018.5
20260507155951 72 286 2.0 4.0 0.00 0.00 0.00 49 1018.5
20260507155851 72 285 1.0 4.0 0.00 0.00 0.00 48 1018.4
20260507155750 72 284 1.0 4.0 0.00 0.00 0.00 48 1018.5
20260507155653 72 262 1.0 3.0 0.00 0.00 0.00 48 1018.5
20260507155551 72 262 1.0 3.0 0.00 0.00 0.00 48 1018.5
20260507155502 72 259 1.0 3.0 0.00 0.00 0.00 48 1018.4
20260507155348 72 257 1.0 3.0 0.00 0.00 0.00 48 1018.4
20260507155244 72 252 1.0 3.0 0.00 0.00 0.00 48 1018.4
20260507155146 72 251 1.0 3.0 0.00 0.00 0.00 48 1018.3
20260507155044 73 251 1.0 3.0 0.00 0.00 0.00 48 1018.2
20260507154942 72 251 1.0 3.0 0.00 0.00 0.00 48 1018.2
20260507154843 72 251 1.0 3.0 0.00 0.00 0.00 48 1018.2
20260507154742 72 251 1.0 3.0 0.00 0.00 0.00 48 1018.2
20260507154640 72 251 1.0 3.0 0.00 0.00 0.00 49 1018.1
20260507154541 72 250 1.0 3.0 0.00 0.00 0.00 49 1018.1
20260507154442 72 250 1.0 3.0 0.00 0.00 0.00 48 1018.1
20260507154339 72 250 1.0 3.0 0.00 0.00 0.00 48 1018.1
20260507154238 72 250 1.0 3.0 0.00 0.00 0.00 48 1018.1
20260507154138 72 250 1.0 3.0 0.00 0.00 0.00 48 1018.2
20260507154032 72 250 1.0 3.0 0.00 0.00 0.00 48 1018.2
20260507154016 72 250 1.0 3.0 0.00 0.00 0.00 48 1018.2
20260507153933 72 250 1.0 3.0 0.00 0.00 0.00 48 1018.2
20260507153832 72 250 1.0 3.0 0.00 0.00 0.00 48 1018.3
20260507153730 72 250 1.0 3.0 0.00 0.00 0.00 49 1018.3
20260507153630 72 249 1.0 3.0 0.00 0.00 0.00 48 1018.3
20260507153530 72 249 1.0 3.0 0.00 0.00 0.00 48 1018.3
20260507153439 72 248 2.0 6.0 0.00 0.00 0.00 47 1018.3
20260507153431 72 249 2.0 3.0 0.00 0.00 0.00 48 1018.2
20260507153408 72 248 2.0 6.0 0.00 0.00 0.00 48 1018.3
20260507153331 72 249 2.0 3.0 0.00 0.00 0.00 48 1018.3
20260507153231 72 248 2.0 6.0 0.00 0.00 0.00 47 1018.3
20260507153131 72 248 2.0 6.0 0.00 0.00 0.00 48 1018.3
20260507153030 73 249 2.0 6.0 0.00 0.00 0.00 48 1018.3
20260507152931 73 235 2.0 6.0 0.00 0.00 0.00 47 1018.3
20260507152850 73 224 3.0 6.0 0.00 0.00 0.00 46 1018.4
20260507152835 73 234 2.0 6.0 0.00 0.00 0.00 47 1018.3
20260507152631 73 229 3.0 6.0 0.00 0.00 0.00 47 1018.3
20260507152529 73 229 3.0 6.0 0.00 0.00 0.00 47 1018.3
20260507152430 73 228 3.0 6.0 0.00 0.00 0.00 47 1018.4
20260507152329 73 224 3.0 6.0 0.00 0.00 0.00 46 1018.4
20260507152324 73 266 3.0 5.0 0.00 0.00 0.00 43 1018.5
20260507152231 73 212 2.0 5.0 0.00 0.00 0.00 46 1018.5
20260507152130 73 262 2.0 5.0 0.00 0.00 0.00 45 1018.5
20260507152030 73 263 3.0 5.0 0.00 0.00 0.00 45 1018.4
20260507151930 73 264 3.0 5.0 0.00 0.00 0.00 44 1018.5
20260507151832 73 266 3.0 5.0 0.00 0.00 0.00 43 1018.5
20260507151735 74 278 3.0 5.0 0.00 0.00 0.00 43 1018.4
20260507151627 74 237 3.0 5.0 0.00 0.00 0.00 43 1018.5
20260507151526 74 229 3.0 5.0 0.00 0.00 0.00 43 1018.5
20260507151426 74 205 3.0 5.0 0.00 0.00 0.00 43 1018.4
20260507151326 74 204 3.0 5.0 0.00 0.00 0.00 43 1018.3
20260507151230 74 204 3.0 5.0 0.00 0.00 0.00 44 1018.3
20260507151119 74 222 3.0 5.0 0.00 0.00 0.00 44 1018.4
20260507151020 74 222 3.0 5.0 0.00 0.00 0.00 45 1018.4
20260507150922 74 222 2.0 5.0 0.00 0.00 0.00 45 1018.4
20260507150818 74 234 2.0 5.0 0.00 0.00 0.00 45 1018.5
20260507150725 74 274 3.0 5.0 0.00 0.00 0.00 45 1018.5
20260507150613 74 268 3.0 5.0 0.00 0.00 0.00 45 1018.5
20260507150514 74 214 3.0 5.0 0.00 0.00 0.00 45 1018.4
20260507150412 74 211 3.0 5.0 0.00 0.00 0.00 45 1018.5
20260507150314 74 211 3.0 7.0 0.00 0.00 0.00 44 1018.6
20260507150214 74 211 3.0 7.0 0.00 0.00 0.00 43 1018.5
20260507150109 74 214 3.0 9.0 0.00 0.00 0.00 43 1018.5
20260507150007 74 247 4.0 9.0 0.00 0.00 0.00 43 1018.5
20260507145909 74 245 4.0 9.0 0.00 0.00 0.00 42 1018.5
20260507145808 74 253 4.0 9.0 0.00 0.00 0.00 41 1018.5
20260507145707 74 224 4.0 9.0 0.00 0.00 0.00 40 1018.4
20260507145602 74 220 4.0 9.0 0.00 0.00 0.00 40 1018.5
20260507145504 74 237 4.0 9.0 0.00 0.00 0.00 39 1018.5
20260507145306 74 237 4.0 9.0 0.00 0.00 0.00 38 1018.5
20260507145203 74 223 4.0 9.0 0.00 0.00 0.00 40 1018.5
20260507145103 75 227 4.0 8.0 0.00 0.00 0.00 39 1018.5
20260507145007 75 188 4.0 8.0 0.00 0.00 0.00 39 1018.5
20260507144904 75 268 4.0 8.0 0.00 0.00 0.00 41 1018.4
20260507144804 75 232 4.0 8.0 0.00 0.00 0.00 42 1018.4
20260507144703 75 230 4.0 8.0 0.00 0.00 0.00 43 1018.4
20260507144605 75 268 4.0 8.0 0.00 0.00 0.00 43 1018.3
20260507144504 75 237 4.0 8.0 0.00 0.00 0.00 42 1018.3
20260507144404 75 255 4.0 8.0 0.00 0.00 0.00 41 1018.3
20260507144303 76 207 5.0 8.0 0.00 0.00 0.00 42 1018.3
20260507144203 76 257 5.0 8.0 0.00 0.00 0.00 41 1018.3
20260507144108 75 276 5.0 8.0 0.00 0.00 0.00 41 1018.3
20260507144004 75 280 5.0 8.0 0.00 0.00 0.00 41 1018.3
20260507143902 76 222 5.0 8.0 0.00 0.00 0.00 41 1018.4
20260507143803 76 235 5.0 8.0 0.00 0.00 0.00 41 1018.4
20260507143703 76 303 5.0 8.0 0.00 0.00 0.00 41 1018.3
20260507143605 76 251 5.0 8.0 0.00 0.00 0.00 40 1018.3
20260507143506 76 222 5.0 8.0 0.00 0.00 0.00 41 1018.3
20260507143403 76 223 5.0 8.0 0.00 0.00 0.00 41 1018.2
20260507143304 76 236 4.0 8.0 0.00 0.00 0.00 43 1018.2
20260507143204 76 205 5.0 8.0 0.00 0.00 0.00 41 1018.2
20260507143102 76 197 5.0 9.0 0.00 0.00 0.00 42 1018.1
20260507143005 76 218 5.0 9.0 0.00 0.00 0.00 41 1018.1
20260507142904 75 193 5.0 9.0 0.00 0.00 0.00 41 1018.1
20260507142803 76 266 5.0 9.0 0.00 0.00 0.00 41 1018.1
20260507142707 76 259 5.0 9.0 0.00 0.00 0.00 40 1018.1
20260507142603 76 220 5.0 9.0 0.00 0.00 0.00 40 1018.1
20260507142505 76 209 4.0 9.0 0.00 0.00 0.00 40 1018.2
20260507142404 76 215 4.0 9.0 0.00 0.00 0.00 41 1018.1
20260507142306 76 234 5.0 9.0 0.00 0.00 0.00 42 1018.1
20260507142207 76 232 4.0 9.0 0.00 0.00 0.00 42 1018.1
20260507142103 76 212 4.0 9.0 0.00 0.00 0.00 43 1018.1
20260507142004 76 219 3.0 9.0 0.00 0.00 0.00 43 1018.0
20260507141902 76 230 3.0 7.0 0.00 0.00 0.00 43 1018.0
20260507141802 76 216 3.0 7.0 0.00 0.00 0.00 42 1018.0
20260507141706 76 217 3.0 7.0 0.00 0.00 0.00 42 1018.1
20260507141605 76 249 3.0 7.0 0.00 0.00 0.00 42 1018.1
20260507141504 76 224 4.0 7.0 0.00 0.00 0.00 40 1018.1
20260507141415 76 203 4.0 7.0 0.00 0.00 0.00 40 1018.1
20260507141303 75 212 3.0 7.0 0.00 0.00 0.00 44 1018.0
20260507141207 75 268 3.0 7.0 0.00 0.00 0.00 44 1018.1
20260507141103 75 255 3.0 7.0 0.00 0.00 0.00 44 1018.2
20260507141004 75 254 4.0 7.0 0.00 0.00 0.00 44 1018.2
20260507140903 75 283 4.0 7.0 0.00 0.00 0.00 45 1018.2
20260507140803 75 228 4.0 8.0 0.00 0.00 0.00 45 1018.2
20260507140705 76 223 4.0 8.0 0.00 0.00 0.00 46 1018.3
20260507140605 76 215 4.0 8.0 0.00 0.00 0.00 45 1018.3
20260507140500 75 309 4.0 8.0 0.00 0.00 0.00 44 1018.3
20260507140400 75 226 4.0 8.0 0.00 0.00 0.00 45 1018.3
20260507140301 75 247 5.0 8.0 0.00 0.00 0.00 43 1018.3
20260507140201 75 193 5.0 8.0 0.00 0.00 0.00 42 1018.4
20260507140100 75 195 5.0 8.0 0.00 0.00 0.00 41 1018.4
20260507135957 75 210 5.0 9.0 0.00 0.00 0.00 43 1018.4
20260507135856 75 263 5.0 9.0 0.00 0.00 0.00 45 1018.5
20260507135755 75 237 5.0 9.0 0.00 0.00 0.00 45 1018.5
20260507135656 75 290 5.0 9.0 0.00 0.00 0.00 44 1018.4
20260507135554 75 259 5.0 9.0 0.00 0.00 0.00 43 1018.4
20260507135451 76 259 5.0 9.0 0.00 0.00 0.00 42 1018.4
20260507135349 76 221 5.0 9.0 0.00 0.00 0.00 42 1018.4
20260507135249 76 219 5.0 9.0 0.00 0.00 0.00 44 1018.5
20260507135149 75 218 5.0 9.0 0.00 0.00 0.00 42 1018.4
20260507135049 76 203 5.0 9.0 0.00 0.00 0.00 41 1018.4
20260507134943 75 228 6.0 9.0 0.00 0.00 0.00 41 1018.3
20260507134843 75 217 6.0 9.0 0.00 0.00 0.00 42 1018.3
20260507134742 75 211 6.0 9.0 0.00 0.00 0.00 42 1018.3
20260507134643 75 199 6.0 9.0 0.00 0.00 0.00 40 1018.3
20260507134543 75 191 6.0 9.0 0.00 0.00 0.00 38 1018.4
20260507134437 75 243 6.0 9.0 0.00 0.00 0.00 37 1018.4
20260507134337 76 222 6.0 9.0 0.00 0.00 0.00 36 1018.3
20260507134237 76 234 6.0 9.0 0.00 0.00 0.00 35 1018.5
20260507134137 76 234 6.0 9.0 0.00 0.00 0.00 35 1018.5
20260507134037 76 232 5.0 9.0 0.00 0.00 0.00 34 1018.4
20260507133934 76 224 5.0 9.0 0.00 0.00 0.00 36 1018.4
20260507133834 76 224 5.0 9.0 0.00 0.00 0.00 36 1018.3
20260507133733 76 191 5.0 8.0 0.00 0.00 0.00 36 1018.3
20260507133634 76 219 5.0 11.0 0.00 0.00 0.00 35 1018.4
20260507133534 76 222 5.0 11.0 0.00 0.00 0.00 37 1018.5
20260507133434 76 235 5.0 11.0 0.00 0.00 0.00 39 1018.5
20260507133332 76 255 5.0 11.0 0.00 0.00 0.00 38 1018.5
20260507133232 76 216 5.0 11.0 0.00 0.00 0.00 39 1018.5
20260507133133 76 247 5.0 11.0 0.00 0.00 0.00 40 1018.5
20260507133033 76 253 5.0 11.0 0.00 0.00 0.00 39 1018.5
20260507132931 76 221 5.0 11.0 0.00 0.00 0.00 38 1018.4
20260507132834 76 214 5.0 11.0 0.00 0.00 0.00 37 1018.3
20260507132731 76 219 5.0 11.0 0.00 0.00 0.00 37 1018.3
20260507132631 76 257 5.0 8.0 0.00 0.00 0.00 36 1018.3
20260507132531 76 226 5.0 8.0 0.00 0.00 0.00 34 1018.3
20260507132433 76 219 5.0 8.0 0.00 0.00 0.00 32 1018.3
20260507132331 76 203 5.0 9.0 0.00 0.00 0.00 33 1018.2
20260507132232 76 253 5.0 9.0 0.00 0.00 0.00 35 1018.3
20260507132130 76 214 5.0 9.0 0.00 0.00 0.00 35 1018.3
20260507132030 76 235 5.0 9.0 0.00 0.00 0.00 35 1018.3
20260507131941 76 239 5.0 9.0 0.00 0.00 0.00 36 1018.2
20260507131833 76 247 5.0 9.0 0.00 0.00 0.00 36 1018.2
20260507131725 77 204 5.0 9.0 0.00 0.00 0.00 35 1018.3
20260507131623 76 193 5.0 9.0 0.00 0.00 0.00 37 1018.3
20260507131524 76 208 5.0 9.0 0.00 0.00 0.00 36 1018.3
20260507131427 76 255 5.0 9.0 0.00 0.00 0.00 38 1018.3
20260507131325 76 222 5.0 9.0 0.00 0.00 0.00 38 1018.3
20260507131221 77 220 4.0 9.0 0.00 0.00 0.00 38 1018.3
20260507131119 77 263 5.0 9.0 0.00 0.00 0.00 37 1018.3
20260507131020 78 251 5.0 9.0 0.00 0.00 0.00 36 1018.3
20260507130921 78 228 5.0 9.0 0.00 0.00 0.00 36 1018.2
20260507130819 78 241 5.0 9.0 0.00 0.00 0.00 34 1018.2
20260507130716 77 207 5.0 9.0 0.00 0.00 0.00 34 1018.2
20260507130626 77 216 5.0 9.0 0.00 0.00 0.00 33 1018.3
20260507130511 77 243 5.0 9.0 0.00 0.00 0.00 33 1018.3
20260507130412 77 218 5.0 9.0 0.00 0.00 0.00 34 1018.4
20260507130313 77 218 5.0 9.0 0.00 0.00 0.00 33 1018.5
20260507130207 77 212 5.0 9.0 0.00 0.00 0.00 31 1018.6
20260507130107 77 216 5.0 10.0 0.00 0.00 0.00 32 1018.5
20260507130005 77 239 5.0 10.0 0.00 0.00 0.00 34 1018.6
20260507125905 77 259 5.0 10.0 0.00 0.00 0.00 34 1018.6
20260507125805 77 218 5.0 10.0 0.00 0.00 0.00 35 1018.6
20260507125704 77 222 5.0 10.0 0.00 0.00 0.00 37 1018.7
20260507125604 77 237 5.0 10.0 0.00 0.00 0.00 37 1018.6
20260507125505 77 258 5.0 10.0 0.00 0.00 0.00 37 1018.7
20260507125404 77 230 5.0 10.0 0.00 0.00 0.00 37 1018.8
20260507125306 77 210 5.0 10.0 0.00 0.00 0.00 38 1018.8
20260507125203 77 212 5.0 10.0 0.00 0.00 0.00 38 1018.8
20260507125104 77 216 5.0 10.0 0.00 0.00 0.00 39 1018.8
20260507125004 76 243 6.0 9.0 0.00 0.00 0.00 39 1018.8
20260507124903 76 242 6.0 9.0 0.00 0.00 0.00 40 1018.8
20260507124803 76 222 6.0 11.0 0.00 0.00 0.00 41 1018.7
20260507124703 76 229 5.0 11.0 0.00 0.00 0.00 39 1018.6
20260507124605 76 243 6.0 11.0 0.00 0.00 0.00 40 1018.6
20260507124505 76 233 6.0 11.0 0.00 0.00 0.00 42 1018.6
20260507124403 76 233 6.0 11.0 0.00 0.00 0.00 42 1018.6
20260507124312 76 224 6.0 12.0 0.00 0.00 0.00 42 1018.6
20260507124202 76 222 7.0 12.0 0.00 0.00 0.00 42 1018.7
20260507124104 76 224 6.0 12.0 0.00 0.00 0.00 42 1018.8
20260507124003 77 201 7.0 12.0 0.00 0.00 0.00 42 1018.8
20260507123901 77 220 6.0 12.0 0.00 0.00 0.00 43 1018.7
20260507123801 76 223 7.0 12.0 0.00 0.00 0.00 43 1018.8
20260507123701 76 218 7.0 12.0 0.00 0.00 0.00 43 1018.9
20260507123603 76 201 7.0 12.0 0.00 0.00 0.00 43 1018.8
20260507123454 76 197 7.0 12.0 0.00 0.00 0.00 42 1018.9
20260507123355 76 230 7.0 12.0 0.00 0.00 0.00 44 1018.9
20260507123255 76 214 7.0 12.0 0.00 0.00 0.00 43 1018.8
20260507123154 76 229 7.0 12.0 0.00 0.00 0.00 42 1018.8
20260507123055 76 225 7.0 12.0 0.00 0.00 0.00 42 1018.8
20260507122950 76 220 7.0 12.0 0.00 0.00 0.00 44 1018.8
20260507122850 76 251 7.0 12.0 0.00 0.00 0.00 43 1018.8
20260507122751 77 205 8.0 12.0 0.00 0.00 0.00 43 1018.8
20260507122650 77 207 8.0 12.0 0.00 0.00 0.00 44 1018.8
20260507122549 77 247 8.0 12.0 0.00 0.00 0.00 44 1018.9
20260507122443 77 236 7.0 12.0 0.00 0.00 0.00 44 1018.8
20260507122342 77 212 7.0 12.0 0.00 0.00 0.00 46 1018.8
20260507122300 76 234 8.0 14.0 0.00 0.00 0.00 45 1018.8
20260507122143 76 196 8.0 14.0 0.00 0.00 0.00 44 1018.9
20260507122042 76 201 8.0 14.0 0.00 0.00 0.00 42 1018.9
20260507121937 76 216 8.0 14.0 0.00 0.00 0.00 39 1018.9
20260507121836 76 218 7.0 14.0 0.00 0.00 0.00 39 1018.9
20260507121737 76 235 7.0 14.0 0.00 0.00 0.00 40 1018.9
20260507121637 76 223 7.0 14.0 0.00 0.00 0.00 42 1018.8
20260507121536 76 240 7.0 14.0 0.00 0.00 0.00 41 1018.9
20260507121433 76 267 7.0 14.0 0.00 0.00 0.00 41 1018.8
20260507121332 77 230 7.0 14.0 0.00 0.00 0.00 40 1018.8
20260507121232 77 226 7.0 13.0 0.00 0.00 0.00 42 1018.7
20260507121133 77 187 7.0 13.0 0.00 0.00 0.00 42 1018.8
20260507121031 77 245 7.0 13.0 0.00 0.00 0.00 44 1018.8
20260507120933 77 214 7.0 13.0 0.00 0.00 0.00 43 1018.8
20260507120831 77 230 7.0 13.0 0.00 0.00 0.00 42 1018.8
20260507120732 76 225 8.0 13.0 0.00 0.00 0.00 41 1018.8
20260507120633 76 212 8.0 14.0 0.00 0.00 0.00 40 1018.8
20260507120531 76 229 8.0 14.0 0.00 0.00 0.00 38 1018.8
20260507120436 77 270 8.0 14.0 0.00 0.00 0.00 39 1018.8
20260507120332 77 231 8.0 14.0 0.00 0.00 0.00 40 1018.8
20260507120231 77 223 8.0 14.0 0.00 0.00 0.00 41 1018.8
20260507120133 77 222 8.0 14.0 0.00 0.00 0.00 41 1018.8
20260507120031 77 199 8.0 14.0 0.00 0.00 0.00 40 1018.8
20260507115933 77 197 8.0 14.0 0.00 0.00 0.00 40 1018.8
20260507115831 77 216 8.0 14.0 0.00 0.00 0.00 39 1018.8
20260507115630 77 217 7.0 14.0 0.00 0.00 0.00 37 1018.8
20260507115531 77 205 7.0 14.0 0.00 0.00 0.00 37 1018.7
20260507115430 77 208 8.0 14.0 0.00 0.00 0.00 37 1018.7
20260507115331 77 246 7.0 14.0 0.00 0.00 0.00 37 1018.7
20260507115225 78 257 7.0 14.0 0.00 0.00 0.00 39 1018.7
20260507115142 78 211 7.0 14.0 0.00 0.00 0.00 37 1018.6
20260507115037 78 213 7.0 14.0 0.00 0.00 0.00 36 1018.6
20260507114934 78 218 7.0 14.0 0.00 0.00 0.00 38 1018.6
20260507114828 78 209 7.0 14.0 0.00 0.00 0.00 36 1018.6
20260507114718 78 183 7.0 14.0 0.00 0.00 0.00 35 1018.6
20260507114618 78 212 7.0 12.0 0.00 0.00 0.00 33 1018.5
20260507114521 78 218 7.0 12.0 0.00 0.00 0.00 32 1018.5
20260507114419 78 214 7.0 14.0 0.00 0.00 0.00 36 1018.5
20260507114318 78 245 8.0 14.0 0.00 0.00 0.00 35 1018.5
20260507114211 78 210 8.0 14.0 0.00 0.00 0.00 33 1018.5
20260507114114 78 247 8.0 14.0 0.00 0.00 0.00 33 1018.5
20260507114013 78 224 8.0 14.0 0.00 0.00 0.00 33 1018.5
20260507113911 78 246 8.0 14.0 0.00 0.00 0.00 34 1018.5
20260507113813 78 254 8.0 14.0 0.00 0.00 0.00 33 1018.4
20260507113706 78 220 8.0 14.0 0.00 0.00 0.00 30 1018.4
20260507113605 78 220 8.0 14.0 0.00 0.00 0.00 30 1018.5
20260507113506 78 179 8.0 14.0 0.00 0.00 0.00 28 1018.5
20260507113406 78 228 8.0 12.0 0.00 0.00 0.00 27 1018.5
20260507113305 78 223 7.0 12.0 0.00 0.00 0.00 28 1018.5
20260507113203 78 216 7.0 12.0 0.00 0.00 0.00 28 1018.5
20260507113104 79 225 7.0 12.0 0.00 0.00 0.00 26 1018.5
20260507113004 79 231 7.0 12.0 0.00 0.00 0.00 27 1018.4
20260507112904 79 257 7.0 12.0 0.00 0.00 0.00 26 1018.5
20260507112803 79 217 7.0 12.0 0.00 0.00 0.00 25 1018.4
20260507112716 80 222 7.0 12.0 0.00 0.00 0.00 27 1018.4
20260507112604 80 218 7.0 12.0 0.00 0.00 0.00 28 1018.4
20260507112502 80 220 7.0 12.0 0.00 0.00 0.00 29 1018.4
20260507112403 79 189 6.0 12.0 0.00 0.00 0.00 30 1018.4
20260507112306 79 214 6.0 11.0 0.00 0.00 0.00 29 1018.4
20260507112204 79 213 6.0 11.0 0.00 0.00 0.00 28 1018.4
20260507112104 79 279 6.0 11.0 0.00 0.00 0.00 30 1018.4
20260507112004 79 210 6.0 11.0 0.00 0.00 0.00 33 1018.5
20260507111902 78 210 6.0 11.0 0.00 0.00 0.00 32 1018.4
20260507111803 78 220 6.0 11.0 0.00 0.00 0.00 29 1018.4
20260507111703 78 266 6.0 10.0 0.00 0.00 0.00 31 1018.4
20260507111604 78 211 6.0 10.0 0.00 0.00 0.00 32 1018.4
20260507111503 78 221 6.0 11.0 0.00 0.00 0.00 30 1018.5
20260507111403 78 212 7.0 11.0 0.00 0.00 0.00 27 1018.3
20260507111303 78 268 7.0 11.0 0.00 0.00 0.00 27 1018.5
20260507111202 78 232 7.0 11.0 0.00 0.00 0.00 27 1018.4
20260507111104 78 243 7.0 11.0 0.00 0.00 0.00 27 1018.4
20260507111003 78 239 7.0 12.0 0.00 0.00 0.00 29 1018.3
20260507110903 78 230 8.0 15.0 0.00 0.00 0.00 29 1018.3
20260507110802 78 226 8.0 15.0 0.00 0.00 0.00 29 1018.3
20260507110707 78 205 8.0 15.0 0.00 0.00 0.00 28 1018.3
20260507110603 78 216 8.0 15.0 0.00 0.00 0.00 31 1018.3
20260507110504 78 200 8.0 15.0 0.00 0.00 0.00 30 1018.3
20260507110402 78 216 8.0 15.0 0.00 0.00 0.00 31 1018.3
20260507110304 78 223 8.0 15.0 0.00 0.00 0.00 33 1018.4
20260507110202 78 225 8.0 15.0 0.00 0.00 0.00 33 1018.3
20260507110112 78 187 8.0 15.0 0.00 0.00 0.00 34 1018.3
20260507110010 78 200 8.0 15.0 0.00 0.00 0.00 33 1018.4
20260507105907 78 186 8.0 13.0 0.00 0.00 0.00 36 1018.4
20260507105803 78 239 8.0 13.0 0.00 0.00 0.00 35 1018.4
20260507105703 78 207 8.0 14.0 0.00 0.00 0.00 34 1018.4
20260507105603 78 205 8.0 14.0 0.00 0.00 0.00 32 1018.4
20260507105502 78 222 8.0 14.0 0.00 0.00 0.00 35 1018.5
20260507105404 78 212 8.0 14.0 0.00 0.00 0.00 36 1018.5
20260507105306 78 227 7.0 14.0 0.00 0.00 0.00 35 1018.5
20260507105203 78 218 7.0 14.0 0.00 0.00 0.00 31 1018.5
20260507105103 78 260 7.0 14.0 0.00 0.00 0.00 31 1018.5
20260507105002 78 230 7.0 14.0 0.00 0.00 0.00 33 1018.5
20260507104902 78 226 7.0 14.0 0.00 0.00 0.00 34 1018.4
20260507104802 78 213 7.0 14.0 0.00 0.00 0.00 35 1018.5
20260507104703 78 221 6.0 13.0 0.00 0.00 0.00 36 1018.5
20260507104604 78 233 6.0 13.0 0.00 0.00 0.00 35 1018.3
20260507104504 78 228 6.0 11.0 0.00 0.00 0.00 36 1018.4
20260507104403 78 278 6.0 11.0 0.00 0.00 0.00 36 1018.3
20260507104303 78 264 6.0 10.0 0.00 0.00 0.00 35 1018.4
20260507104205 78 212 6.0 10.0 0.00 0.00 0.00 36 1018.3
20260507104100 78 232 6.0 10.0 0.00 0.00 0.00 33 1018.3
20260507104001 78 231 6.0 10.0 0.00 0.00 0.00 33 1018.3
20260507103900 79 294 6.0 10.0 0.00 0.00 0.00 34 1018.3
20260507103759 79 255 6.0 10.0 0.00 0.00 0.00 33 1018.3
20260507103703 79 238 6.0 10.0 0.00 0.00 0.00 37 1018.2
20260507103554 79 244 6.0 10.0 0.00 0.00 0.00 37 1018.3
20260507103456 78 226 6.0 10.0 0.00 0.00 0.00 34 1018.2
20260507103355 78 189 5.0 10.0 0.00 0.00 0.00 34 1018.2
20260507103253 78 164 6.0 10.0 0.00 0.00 0.00 34 1018.2
20260507103152 78 210 6.0 10.0 0.00 0.00 0.00 34 1018.2
20260507103049 78 202 6.0 10.0 0.00 0.00 0.00 33 1018.1
20260507102947 78 203 6.0 11.0 0.00 0.00 0.00 34 1018.2
20260507102846 78 246 6.0 11.0 0.00 0.00 0.00 34 1018.2
20260507102746 78 181 6.0 11.0 0.00 0.00 0.00 35 1018.1
20260507102647 78 197 6.0 11.0 0.00 0.00 0.00 35 1018.2
20260507102540 78 183 6.0 13.0 0.00 0.00 0.00 35 1018.1
20260507102439 77 266 6.0 13.0 0.00 0.00 0.00 34 1018.1
20260507102341 77 216 6.0 13.0 0.00 0.00 0.00 35 1018.2
20260507102240 77 200 6.0 13.0 0.00 0.00 0.00 35 1018.2
20260507102140 77 219 6.0 13.0 0.00 0.00 0.00 36 1018.3
20260507102035 77 212 6.0 13.0 0.00 0.00 0.00 34 1018.2
20260507101934 77 253 6.0 13.0 0.00 0.00 0.00 36 1018.3
20260507101833 77 214 6.0 13.0 0.00 0.00 0.00 36 1018.3
20260507101734 77 205 6.0 13.0 0.00 0.00 0.00 34 1018.3
20260507101633 77 195 6.0 13.0 0.00 0.00 0.00 34 1018.3
20260507101534 77 185 6.0 11.0 0.00 0.00 0.00 36 1018.4
20260507101433 77 224 6.0 11.0 0.00 0.00 0.00 36 1018.4
20260507101335 77 181 7.0 11.0 0.00 0.00 0.00 34 1018.4
20260507101235 77 205 7.0 11.0 0.00 0.00 0.00 35 1018.5
20260507101132 76 207 7.0 11.0 0.00 0.00 0.00 36 1018.4
20260507101032 76 208 6.0 11.0 0.00 0.00 0.00 35 1018.4
20260507100933 76 207 6.0 11.0 0.00 0.00 0.00 38 1018.5
20260507100831 76 203 6.0 11.0 0.00 0.00 0.00 41 1018.5
20260507100732 76 224 6.0 11.0 0.00 0.00 0.00 39 1018.6
20260507100632 76 197 6.0 14.0 0.00 0.00 0.00 37 1018.6
20260507100532 77 237 7.0 14.0 0.00 0.00 0.00 35 1018.6
20260507100433 77 236 7.0 14.0 0.00 0.00 0.00 36 1018.6
20260507100331 77 196 7.0 14.0 0.00 0.00 0.00 36 1018.6
20260507100233 77 208 7.0 14.0 0.00 0.00 0.00 37 1018.6
20260507100131 77 233 6.0 14.0 0.00 0.00 0.00 34 1018.6
20260507100032 77 132 6.0 14.0 0.00 0.00 0.00 33 1018.6
20260507095933 77 216 7.0 14.0 0.00 0.00 0.00 35 1018.6
20260507095831 77 216 7.0 14.0 0.00 0.00 0.00 35 1018.6
20260507095732 77 172 7.0 14.0 0.00 0.00 0.00 32 1018.7
20260507095632 77 205 7.0 13.0 0.00 0.00 0.00 39 1018.7
20260507095534 77 215 7.0 12.0 0.00 0.00 0.00 40 1018.7
20260507095433 77 218 7.0 12.0 0.00 0.00 0.00 37 1018.7
20260507095332 77 210 7.0 12.0 0.00 0.00 0.00 38 1018.7
20260507095232 77 222 7.0 12.0 0.00 0.00 0.00 38 1018.7
20260507095131 76 212 7.0 12.0 0.00 0.00 0.00 39 1018.7
20260507095031 76 240 7.0 12.0 0.00 0.00 0.00 35 1018.8
20260507094933 76 191 7.0 12.0 0.00 0.00 0.00 35 1018.9
20260507094832 76 204 7.0 12.0 0.00 0.00 0.00 36 1018.9
20260507094732 76 221 7.0 12.0 0.00 0.00 0.00 39 1018.9
20260507094633 76 210 7.0 12.0 0.00 0.00 0.00 40 1018.8
20260507094529 76 222 7.0 12.0 0.00 0.00 0.00 39 1018.8
20260507094430 77 207 7.0 12.0 0.00 0.00 0.00 40 1018.8
20260507094330 76 166 7.0 12.0 0.00 0.00 0.00 40 1018.8
20260507094229 76 254 7.0 12.0 0.00 0.00 0.00 38 1018.8
20260507094131 76 222 7.0 12.0 0.00 0.00 0.00 37 1018.8
20260507094029 76 196 7.0 12.0 0.00 0.00 0.00 37 1018.9
20260507093929 76 220 7.0 13.0 0.00 0.00 0.00 38 1018.9
20260507093830 76 193 7.0 13.0 0.00 0.00 0.00 38 1018.9
20260507093732 76 255 7.0 13.0 0.00 0.00 0.00 40 1018.9
20260507093627 76 214 7.0 13.0 0.00 0.00 0.00 41 1018.8
20260507093527 76 221 7.0 13.0 0.00 0.00 0.00 41 1018.8
20260507093428 76 255 7.0 13.0 0.00 0.00 0.00 40 1018.8
20260507093327 76 241 7.0 13.0 0.00 0.00 0.00 42 1018.7
20260507093226 76 212 8.0 13.0 0.00 0.00 0.00 40 1018.8
20260507093125 75 187 8.0 16.0 0.00 0.00 0.00 40 1018.8
20260507093027 75 186 8.0 16.0 0.00 0.00 0.00 43 1018.7
20260507092921 75 223 8.0 16.0 0.00 0.00 0.00 43 1018.8
20260507092823 75 187 8.0 16.0 0.00 0.00 0.00 46 1018.8
20260507092724 75 222 8.0 16.0 0.00 0.00 0.00 47 1018.8
20260507092621 75 206 8.0 16.0 0.00 0.00 0.00 45 1018.8
20260507092522 74 183 8.0 16.0 0.00 0.00 0.00 45 1018.8
20260507092421 74 201 8.0 16.0 0.00 0.00 0.00 48 1018.9
20260507092322 74 202 8.0 16.0 0.00 0.00 0.00 49 1018.9
20260507092222 74 186 7.0 16.0 0.00 0.00 0.00 50 1018.9
20260507092121 74 189 7.0 13.0 0.00 0.00 0.00 51 1018.9
20260507092022 74 204 7.0 12.0 0.00 0.00 0.00 55 1018.9
20260507091921 74 222 7.0 12.0 0.00 0.00 0.00 56 1018.9
20260507091824 74 190 7.0 13.0 0.00 0.00 0.00 55 1018.9
20260507091721 74 260 7.0 13.0 0.00 0.00 0.00 55 1019.0
20260507091622 74 220 7.0 13.0 0.00 0.00 0.00 56 1019.0
20260507091521 74 285 7.0 13.0 0.00 0.00 0.00 57 1019.0
20260507091422 74 222 7.0 13.0 0.00 0.00 0.00 58 1019.1
20260507091322 74 187 7.0 16.0 0.00 0.00 0.00 58 1019.1
20260507091221 73 181 7.0 16.0 0.00 0.00 0.00 57 1019.2
20260507091123 73 228 8.0 16.0 0.00 0.00 0.00 58 1019.1
20260507091017 73 228 8.0 16.0 0.00 0.00 0.00 58 1019.1
20260507090917 73 221 8.0 16.0 0.00 0.00 0.00 59 1019.2
20260507090819 73 237 7.0 16.0 0.00 0.00 0.00 60 1019.1
20260507090718 73 269 7.0 16.0 0.00 0.00 0.00 59 1019.1
20260507090617 73 204 8.0 16.0 0.00 0.00 0.00 59 1019.1
20260507090518 74 251 8.0 16.0 0.00 0.00 0.00 58 1019.1
20260507090418 74 240 8.0 16.0 0.00 0.00 0.00 58 1019.0
20260507090317 74 236 7.0 15.0 0.00 0.00 0.00 59 1019.1
20260507090218 74 201 7.0 15.0 0.00 0.00 0.00 58 1019.0
20260507090117 74 234 7.0 14.0 0.00 0.00 0.00 59 1019.0
20260507090019 74 269 7.0 13.0 0.00 0.00 0.00 58 1018.9
20260507085918 75 212 7.0 15.0 0.00 0.00 0.00 56 1018.9
20260507085819 75 218 7.0 15.0 0.00 0.00 0.00 56 1019.0
20260507085717 75 245 7.0 15.0 0.00 0.00 0.00 55 1019.0
20260507085618 75 214 7.0 15.0 0.00 0.00 0.00 55 1019.0
20260507085518 75 229 8.0 15.0 0.00 0.00 0.00 53 1019.0
20260507085417 75 211 8.0 15.0 0.00 0.00 0.00 53 1019.0
20260507085317 75 235 8.0 15.0 0.00 0.00 0.00 49 1019.0
20260507085219 75 262 9.0 15.0 0.00 0.00 0.00 46 1019.0
20260507085111 75 227 9.0 15.0 0.00 0.00 0.00 46 1018.9
20260507085012 75 242 9.0 15.0 0.00 0.00 0.00 48 1018.9
20260507084912 75 237 9.0 15.0 0.00 0.00 0.00 49 1018.9
20260507084811 75 260 9.0 15.0 0.00 0.00 0.00 46 1018.9
20260507084712 75 238 9.0 15.0 0.00 0.00 0.00 45 1018.8
20260507084613 75 224 9.0 15.0 0.00 0.00 0.00 42 1018.8
20260507084511 76 225 9.0 15.0 0.00 0.00 0.00 41 1018.8
20260507084411 76 220 9.0 15.0 0.00 0.00 0.00 43 1018.7
20260507084313 76 222 9.0 15.0 0.00 0.00 0.00 43 1018.8
20260507084211 77 229 9.0 15.0 0.00 0.00 0.00 40 1018.7
20260507084112 76 199 9.0 15.0 0.00 0.00 0.00 40 1018.7
20260507084013 76 210 9.0 15.0 0.00 0.00 0.00 39 1018.8
20260507083908 76 230 9.0 14.0 0.00 0.00 0.00 36 1018.7
20260507083806 76 212 9.0 14.0 0.00 0.00 0.00 31 1018.8
20260507083708 76 218 9.0 14.0 0.00 0.00 0.00 31 1018.8
20260507083608 76 228 8.0 14.0 0.00 0.00 0.00 32 1018.7
20260507083507 76 239 9.0 14.0 0.00 0.00 0.00 32 1018.7
20260507083408 76 253 9.0 14.0 0.00 0.00 0.00 31 1018.7
20260507083308 76 224 8.0 14.0 0.00 0.00 0.00 31 1018.7
20260507083208 76 221 8.0 14.0 0.00 0.00 0.00 30 1018.6
20260507083109 76 199 8.0 15.0 0.00 0.00 0.00 30 1018.6
20260507083007 76 224 8.0 15.0 0.00 0.00 0.00 29 1018.6
20260507082907 76 219 8.0 15.0 0.00 0.00 0.00 30 1018.5
20260507082808 77 213 8.0 15.0 0.00 0.00 0.00 30 1018.5
20260507082707 77 226 8.0 15.0 0.00 0.00 0.00 30 1018.5
20260507082607 77 255 8.0 15.0 0.00 0.00 0.00 30 1018.4
20260507082507 77 227 7.0 15.0 0.00 0.00 0.00 31 1018.5
20260507082410 77 200 7.0 15.0 0.00 0.00 0.00 30 1018.5
20260507082309 77 235 7.0 15.0 0.00 0.00 0.00 31 1018.4
20260507082207 77 231 7.0 15.0 0.00 0.00 0.00 31 1018.4
20260507082108 77 201 7.0 14.0 0.00 0.00 0.00 32 1018.4
20260507082004 77 223 6.0 12.0 0.00 0.00 0.00 31 1018.3
20260507081903 77 216 6.0 11.0 0.00 0.00 0.00 33 1018.3
20260507081806 77 222 6.0 11.0 0.00 0.00 0.00 32 1018.3
20260507081703 77 230 6.0 11.0 0.00 0.00 0.00 31 1018.3
20260507081604 77 271 6.0 11.0 0.00 0.00 0.00 30 1018.3
20260507081505 77 247 6.0 11.0 0.00 0.00 0.00 30 1018.3
20260507081403 77 264 6.0 11.0 0.00 0.00 0.00 31 1018.3
20260507081303 77 213 6.0 11.0 0.00 0.00 0.00 32 1018.3
20260507081204 77 234 6.0 11.0 0.00 0.00 0.00 31 1018.3
20260507081103 77 221 6.0 11.0 0.00 0.00 0.00 31 1018.2
20260507081003 77 212 5.0 10.0 0.00 0.00 0.00 32 1018.2
20260507080903 77 222 5.0 10.0 0.00 0.00 0.00 32 1018.3
20260507080805 77 289 5.0 10.0 0.00 0.00 0.00 33 1018.3
20260507080704 77 255 5.0 10.0 0.00 0.00 0.00 32 1018.2
20260507080603 76 220 5.0 10.0 0.00 0.00 0.00 32 1018.3
20260507080503 76 232 5.0 10.0 0.00 0.00 0.00 32 1018.1
20260507080403 76 230 5.0 9.0 0.00 0.00 0.00 32 1018.3
20260507080304 76 218 5.0 8.0 0.00 0.00 0.00 33 1018.3
20260507080204 76 193 5.0 8.0 0.00 0.00 0.00 33 1018.3
20260507080103 76 234 5.0 8.0 0.00 0.00 0.00 34 1018.3
20260507080004 76 248 5.0 8.0 0.00 0.00 0.00 34 1018.3
20260507075905 76 273 4.0 8.0 0.00 0.00 0.00 35 1018.3
20260507075805 76 258 4.0 8.0 0.00 0.00 0.00 34 1018.3
20260507075704 76 247 4.0 8.0 0.00 0.00 0.00 34 1018.2
20260507075605 75 232 4.0 8.0 0.00 0.00 0.00 34 1018.3
20260507075504 75 214 4.0 8.0 0.00 0.00 0.00 35 1018.3
20260507075405 75 212 4.0 8.0 0.00 0.00 0.00 34 1018.3
20260507075306 75 249 4.0 8.0 0.00 0.00 0.00 34 1018.3
20260507075203 75 225 3.0 8.0 0.00 0.00 0.00 35 1018.3
20260507075105 75 208 3.0 8.0 0.00 0.00 0.00 35 1018.3
20260507075004 75 228 3.0 8.0 0.00 0.00 0.00 36 1018.3
20260507074902 75 279 3.0 8.0 0.00 0.00 0.00 37 1018.3
20260507074805 75 280 3.0 8.0 0.00 0.00 0.00 38 1018.3
20260507074704 75 271 3.0 7.0 0.00 0.00 0.00 39 1018.4
20260507074602 75 224 3.0 7.0 0.00 0.00 0.00 40 1018.3
20260507074503 75 268 3.0 7.0 0.00 0.00 0.00 41 1018.3
20260507074403 75 284 3.0 7.0 0.00 0.00 0.00 44 1018.3
20260507074304 75 233 3.0 7.0 0.00 0.00 0.00 44 1018.3
20260507074204 75 253 3.0 7.0 0.00 0.00 0.00 44 1018.3
20260507074103 75 255 3.0 7.0 0.00 0.00 0.00 44 1018.3
20260507074003 75 237 3.0 6.0 0.00 0.00 0.00 45 1018.3
20260507073908 75 312 3.0 6.0 0.00 0.00 0.00 45 1018.3
20260507073805 75 230 3.0 6.0 0.00 0.00 0.00 44 1018.3
20260507073703 75 254 3.0 7.0 0.00 0.00 0.00 44 1018.2
20260507073603 75 232 3.0 7.0 0.00 0.00 0.00 44 1018.2
20260507073503 74 241 3.0 7.0 0.00 0.00 0.00 44 1018.3
20260507073408 74 284 3.0 7.0 0.00 0.00 0.00 44 1018.2
20260507073302 74 270 3.0 7.0 0.00 0.00 0.00 44 1018.2
20260507073202 74 280 3.0 7.0 0.00 0.00 0.00 44 1018.3
20260507073102 74 205 3.0 7.0 0.00 0.00 0.00 45 1018.2